<- Previous Day | Today | Next Day ->

All Data for 24 January 2021

 

Time A - D Temp A - D Dew Point A - D Humidity A - D Pressure A - D Wind A - D Wind Dir Gust A - D Rain Rate A - D Rain Total
00:00 4.0 -0.8 71 997.2 7.6 SE 8.3 0.0 0.0
00:01 4.0 -0.8 71 997.1 7.6 SE 8.3 0.0 0.0
00:02 4.0 -0.8 71 997.1 7.6 SE 8.3 0.0 0.0
00:03 4.0 -0.8 71 997.0 7.6 SE 8.3 0.0 0.0
00:04 4.0 -0.8 71 997.0 7.6 SE 8.3 0.0 0.0
00:05 4.0 -0.8 71 997.1 7.6 SE 8.3 0.0 0.0
00:06 4.0 -0.8 71 997.1 7.6 SE 8.3 0.0 0.0
00:07 4.0 -0.6 72 997.2 10.7 S 10.7 0.0 0.0
00:08 4.0 -0.6 72 997.2 15.2 WSW 15.2 0.0 0.0
00:09 4.1 -0.5 72 997.2 10.7 S 15.2 0.0 0.0
00:10 4.1 -0.5 72 997.1 8.3 SE 15.2 0.0 0.0
00:11 4.1 -0.5 72 997.3 9.8 S 15.2 0.0 0.0
00:12 4.1 -0.5 72 997.3 11.4 SW 15.2 0.0 0.1
00:14 4.0 -0.6 72 997.7 16.8 SW 16.8 0.8 0.1
00:15 4.0 -0.6 72 997.7 13.0 SW 16.8 0.8 0.1
00:16 3.9 -0.5 73 997.4 9.8 S 16.8 0.8 0.1
00:17 3.9 -0.5 73 997.6 12.1 WSW 16.8 0.8 0.1
00:18 3.8 -0.6 73 997.6 9.8 SW 16.8 0.8 0.1
00:19 3.8 -0.6 73 997.7 11.4 S 16.8 0.8 0.1
00:20 3.7 -0.7 73 997.4 11.4 SW 16.8 1.5 0.2
00:21 3.6 -0.8 73 997.6 12.1 SW 16.8 2.3 0.3
00:22 3.5 -0.9 73 997.6 11.4 W 16.8 2.3 0.3
00:23 3.5 -0.9 73 997.5 9.2 SW 16.8 2.3 0.3
00:24 3.5 -0.9 73 997.4 11.4 SW 16.8 3.0 0.4
00:25 3.4 -0.8 74 997.3 10.7 SW 16.8 2.3 0.4
00:26 3.4 -0.8 74 997.4 9.8 SW 13.6 2.3 0.4
00:27 3.3 -0.9 74 997.5 12.1 SW 13.6 2.3 0.5
00:29 3.3 -0.7 75 997.4 10.7 SW 13.6 1.5 0.6
00:30 3.3 -0.7 75 997.3 9.8 SW 13.6 2.3 0.6
00:31 3.2 -0.8 75 997.5 9.8 SW 12.1 2.3 0.6
00:32 3.2 -0.8 75 997.2 9.2 WSW 12.1 2.3 0.6
00:33 3.2 -0.8 75 997.2 9.2 WSW 12.1 1.5 0.6
00:34 3.2 -0.6 76 997.3 8.3 SW 12.1 2.3 0.7
00:35 3.2 -0.6 76 997.1 6.9 SW 12.1 1.5 0.7
00:36 3.2 -0.6 76 997.2 6.9 W 12.1 0.8 0.7
00:37 3.2 -0.4 77 997.2 8.3 SW 12.1 0.8 0.7
00:38 3.2 -0.4 77 997.1 6.9 WSW 12.1 0.8 0.7
00:39 3.2 -0.4 77 997.1 6.9 SW 10.7 0.0 0.7
00:40 3.2 -0.4 77 997.0 6.9 SW 9.8 0.0 0.7
00:41 3.2 -0.4 77 996.9 6.0 SW 9.8 0.0 0.7
00:42 3.2 -0.3 78 997.1 5.4 SW 9.2 0.0 0.7
00:44 3.2 -0.3 78 997.1 7.6 SW 8.3 0.8 0.8
00:45 3.2 -0.3 78 996.9 7.6 S 8.3 0.8 0.8
00:46 3.2 -0.3 78 997.0 6.9 S 8.3 0.8 0.8
00:47 3.2 -0.1 79 996.9 6.9 SW 7.6 0.8 0.8
00:48 3.2 -0.1 79 996.9 6.9 SW 7.6 0.8 0.8
00:49 3.2 -0.1 79 996.9 6.9 S 7.6 0.8 0.8
00:50 3.2 -0.1 79 996.8 9.2 S 9.2 0.8 0.8
00:51 3.2 -0.1 79 996.9 9.2 SW 9.2 0.8 0.8
00:52 3.2 -0.1 79 997.0 7.6 S 9.2 0.8 0.8
00:53 3.2 0.1 80 996.9 8.3 S 9.2 0.8 0.9
00:54 3.2 0.1 80 996.8 9.8 S 9.8 0.8 0.9
00:55 3.3 0.2 80 996.8 7.6 SW 11.4 0.8 0.9
00:56 3.3 0.2 80 996.9 9.2 S 11.4 0.8 0.9
00:58 3.3 0.2 80 996.9 10.7 SW 11.4 0.0 0.9
00:59 3.4 0.3 80 996.8 7.6 S 11.4 0.0 0.9
01:00 3.4 0.3 80 996.7 7.6 S 11.4 0.0 0.9
01:01 3.4 0.3 80 996.6 7.6 S 11.4 0.0 0.9
01:02 3.4 0.3 80 996.8 7.6 S 11.4 0.0 0.9
01:03 3.4 0.3 80 996.8 7.6 S 11.4 0.0 0.9
01:04 3.4 0.3 80 996.8 7.6 S 11.4 0.0 0.9
01:05 3.4 0.3 80 996.7 7.6 S 11.4 0.0 0.9
01:06 3.4 0.3 80 996.7 7.6 S 10.7 0.0 0.9
01:07 3.5 0.4 80 996.8 8.3 S 10.7 0.0 0.9
01:08 3.5 0.4 80 996.8 8.3 S 10.7 0.0 0.9
01:09 3.5 0.6 81 996.8 9.2 S 10.7 0.0 0.9
01:10 3.6 0.6 81 996.8 9.2 S 9.2 0.0 0.9
01:11 3.6 0.6 81 996.7 9.8 S 9.8 0.0 0.9
01:13 3.6 0.6 81 996.8 8.3 S 9.8 0.0 0.9
01:14 3.6 0.6 81 996.9 9.2 SW 9.8 0.8 0.9
01:15 3.6 0.6 81 997.0 9.2 SW 9.8 0.8 1.0
01:16 3.6 0.6 81 996.9 9.2 SW 9.8 1.5 1.0
01:17 3.6 0.6 81 996.8 6.0 S 9.8 1.5 1.0
01:18 3.7 0.7 81 996.7 7.6 SW 9.8 1.5 1.0
01:19 3.7 0.7 81 996.8 7.6 S 9.8 1.5 1.1
01:20 3.7 0.7 81 996.8 6.0 S 9.8 1.5 1.1
01:21 3.7 0.7 81 996.8 6.0 SW 9.8 0.8 1.1
01:22 3.7 0.7 81 996.8 6.0 SW 9.8 1.5 1.1
01:23 3.7 0.7 81 996.9 6.9 SW 9.2 2.3 1.2
01:24 3.7 0.7 81 996.9 7.6 SW 9.2 2.3 1.3
01:25 3.7 0.7 81 997.0 9.2 SW 9.2 3.0 1.3
01:26 3.7 0.7 81 996.7 9.2 S 9.2 3.8 1.4
01:28 3.7 0.7 81 997.0 9.8 SW 9.8 4.5 1.6
01:29 3.7 0.7 81 996.8 9.2 S 9.8 4.5 1.6
01:30 3.7 0.7 81 996.9 9.8 SW 9.8 4.5 1.7
01:31 3.7 0.7 81 997.0 12.1 S 12.1 4.5 1.8
01:32 3.7 0.7 81 997.0 12.1 S 12.1 5.3 1.8
01:33 3.7 0.7 81 997.1 12.1 W 12.1 3.8 1.9
01:34 3.7 0.9 82 996.8 13.0 SW 13.0 4.5 2.0
01:35 3.7 0.9 82 996.8 9.2 SW 13.0 4.5 2.1
01:36 3.7 0.9 82 997.0 9.2 SW 13.0 3.8 2.1
01:37 3.7 0.9 82 996.9 13.0 SW 13.0 3.8 2.1
01:38 3.7 0.9 82 996.7 12.1 SW 13.0 3.0 2.1
01:39 3.7 0.9 82 996.8 12.1 SW 13.0 2.3 2.2
01:40 3.7 0.9 82 997.2 10.7 W 13.0 2.3 2.3
01:41 3.7 0.9 82 996.9 17.4 S 17.4 2.3 2.3
01:43 3.6 0.8 82 996.8 11.4 SW 17.4 2.3 2.4
01:44 3.6 0.8 82 996.8 7.6 SW 17.4 2.3 2.4
01:45 3.6 0.8 82 996.9 8.3 W 17.4 1.5 2.4
01:46 3.6 0.8 82 996.7 6.9 SW 17.4 1.5 2.4
01:47 3.6 0.8 82 996.8 6.9 SW 17.4 1.5 2.4
01:48 3.6 0.8 82 996.9 6.9 SW 17.4 0.8 2.4
01:49 3.5 0.7 82 996.7 4.5 SW 17.4 0.0 2.4
01:50 3.5 0.7 82 996.6 4.5 S 17.4 0.0 2.4
01:51 3.5 0.7 82 996.4 4.5 S 17.4 0.0 2.4
01:52 3.5 0.7 82 996.6 5.4 SW 13.0 0.0 2.4
01:53 3.5 0.7 82 996.6 4.5 SW 13.0 0.0 2.4
01:54 3.5 0.7 82 996.5 6.0 SW 8.3 0.0 2.4
01:55 3.4 0.6 82 996.6 6.0 SW 6.9 0.0 2.4
01:56 3.4 0.6 82 996.7 4.5 SW 6.9 0.0 2.4
01:58 3.4 0.6 82 996.7 6.9 S 6.9 0.0 2.4
01:59 3.4 0.6 82 996.5 6.0 SW 6.9 0.0 2.4
02:00 3.4 0.6 82 996.5 6.0 S 6.9 0.0 2.4
02:01 3.4 0.6 82 996.6 5.4 SW 6.9 0.0 2.4
02:02 3.4 0.6 82 996.5 5.4 SW 6.9 0.0 2.4
02:03 3.4 0.6 82 996.4 5.4 S 6.9 0.0 2.4
02:04 3.4 0.6 82 996.4 5.4 S 6.9 0.0 2.4
02:05 3.4 0.6 82 996.4 6.0 SW 6.9 0.0 2.4
02:06 3.4 0.6 82 996.3 6.0 SW 6.9 0.0 2.4
02:07 3.4 0.6 82 996.4 5.4 SW 6.9 0.0 2.4
02:08 3.4 0.6 82 996.6 5.4 SW 6.9 0.0 2.4
02:09 3.5 0.7 82 996.3 4.5 SW 6.0 0.0 2.5
02:10 3.5 0.7 82 996.3 4.5 SW 6.0 0.8 2.5
02:12 3.5 0.7 82 996.0 4.5 NW 6.0 0.8 2.5
02:13 3.5 0.7 82 996.3 5.4 SW 6.0 0.8 2.5
02:14 3.5 0.7 82 996.3 7.6 SW 7.6 0.8 2.5
02:15 3.5 0.7 82 996.2 14.5 E 14.5 0.0 2.5
02:16 3.5 0.7 82 996.2 14.5 E 14.5 0.8 2.5
02:17 3.5 0.7 82 996.4 9.2 W 14.5 0.8 2.5
02:18 3.5 0.7 82 996.4 10.7 SW 14.5 0.8 2.5
02:19 3.5 0.7 82 996.2 12.1 WSW 14.5 0.8 2.5
02:20 3.5 0.7 82 996.3 9.8 SW 14.5 0.8 2.5
02:21 3.6 0.8 82 996.2 11.4 SW 14.5 0.0 2.5
02:22 3.6 0.8 82 996.3 10.7 SW 14.5 0.0 2.5
02:23 3.6 0.8 82 996.2 10.7 SW 14.5 0.0 2.5
02:24 3.6 0.8 82 996.2 9.2 SW 14.5 0.0 2.5
02:25 3.6 0.8 82 996.2 7.6 SW 14.5 0.0 2.5
02:27 3.6 0.8 82 996.2 6.0 SW 12.1 0.0 2.5
02:28 3.6 0.8 82 996.1 8.3 SW 12.1 0.0 2.5
02:29 3.6 0.8 82 996.2 8.3 S 11.4 0.0 2.5
02:30 3.5 0.7 82 996.1 4.5 SW 11.4 0.0 2.5
02:31 3.5 0.7 82 996.0 7.6 SW 11.4 0.0 2.5
02:32 3.5 0.7 82 996.3 8.3 SW 10.7 0.0 2.5
02:33 3.5 0.7 82 996.1 8.3 SW 10.7 0.0 2.5
02:34 3.5 0.7 82 996.1 7.6 W 9.2 0.0 2.5
02:35 3.5 0.7 82 996.2 8.3 SW 8.3 0.0 2.5
02:36 3.5 0.7 82 996.3 6.9 SW 8.3 0.0 2.5
02:37 3.4 0.6 82 996.1 6.0 SW 8.3 0.0 2.5
02:38 3.4 0.6 82 995.9 6.9 SW 8.3 0.0 2.5
02:39 3.4 0.6 82 996.1 6.0 SW 8.3 0.0 2.5
02:41 3.4 0.6 82 996.0 5.4 W 8.3 0.0 2.5
02:42 3.4 0.6 82 996.0 6.0 SW 8.3 0.0 2.5
02:43 3.4 0.6 82 995.9 5.4 SW 8.3 0.0 2.5
02:44 3.3 0.5 82 996.2 6.0 W 8.3 0.0 2.5
02:45 3.3 0.5 82 995.9 6.9 SW 8.3 0.0 2.5
02:46 3.3 0.5 82 996.0 6.9 SW 7.6 0.0 2.5
02:47 3.3 0.5 82 996.1 7.6 SW 7.6 0.0 2.5
02:48 3.3 0.5 82 995.9 6.0 SW 7.6 0.0 2.5
02:49 3.3 0.5 82 995.9 6.9 W 7.6 0.0 2.5
02:50 3.3 0.5 82 996.1 6.9 SW 7.6 0.0 2.5
02:51 3.3 0.5 82 996.0 6.9 SW 7.6 0.0 2.5
02:52 3.3 0.5 82 995.8 5.4 W 7.6 0.0 2.5
02:53 3.2 0.4 82 995.7 3.8 SW 7.6 0.0 2.5
02:55 3.2 0.4 82 995.9 4.5 SW 7.6 0.0 2.5
02:56 3.2 0.4 82 995.8 4.5 SW 7.6 0.0 2.5
02:57 3.2 0.4 82 996.0 3.8 W 6.9 0.0 2.5
02:58 3.2 0.4 82 995.9 4.5 SW 6.9 0.0 2.5
02:59 3.1 0.3 82 996.0 3.1 SW 6.9 0.0 2.5
03:00 3.1 0.3 82 996.0 3.1 SW 6.9 0.0 2.5
03:01 3.1 0.3 82 996.0 3.1 SW 6.9 0.0 2.5
03:02 3.1 0.3 82 995.9 3.1 SW 5.4 0.0 2.5
03:03 3.1 0.3 82 995.9 3.1 SW 5.4 0.0 2.5
03:04 3.1 0.3 82 995.6 3.1 SW 5.4 0.0 2.5
03:05 3.1 0.3 82 995.7 3.1 SW 5.4 0.0 2.5
03:06 3.1 0.3 82 996.0 3.1 SW 5.4 0.0 2.5
03:07 3.0 0.2 82 996.0 3.8 SW 5.4 0.0 2.5
03:08 3.0 0.2 82 995.6 3.1 SW 5.4 0.0 2.5
03:10 3.0 0.2 82 995.7 3.8 SW 4.5 0.0 2.5
03:11 3.0 0.2 82 995.7 6.9 SW 6.9 0.0 2.5
03:12 3.0 0.2 82 995.7 4.5 W 6.9 0.0 2.5
03:13 3.0 0.2 82 995.8 4.5 SSW 6.9 0.0 2.5
03:14 3.0 0.2 82 995.6 4.5 SW 6.9 0.0 2.5
03:15 3.0 0.2 82 995.6 5.4 SW 6.9 0.0 2.5
03:16 3.0 0.2 82 995.6 5.4 W 6.9 0.0 2.5
03:17 3.0 0.2 82 995.8 5.4 SW 6.9 0.0 2.5
03:18 3.0 0.2 82 995.6 5.4 W 6.9 0.0 2.5
03:19 3.0 0.2 82 995.7 8.3 SW 8.3 0.0 2.5
03:20 3.0 0.2 82 995.8 9.2 SW 9.2 0.0 2.5
03:21 3.0 0.2 82 995.8 4.5 W 9.2 0.0 2.5
03:22 3.0 0.2 82 995.9 5.4 SW 9.2 0.0 2.5
03:24 3.0 0.2 82 995.9 4.5 WNW 9.2 0.0 2.5
03:25 3.0 0.2 82 995.8 4.5 SW 9.2 0.0 2.5
03:26 3.1 0.3 82 995.7 3.8 W 9.2 0.0 2.5
03:27 3.1 0.3 82 995.7 4.5 W 9.2 0.0 2.5
03:28 3.1 0.3 82 995.7 4.5 W 9.2 0.0 2.5
03:29 3.1 0.3 82 995.5 4.5 SW 9.2 0.0 2.5
03:30 3.1 0.3 82 995.6 4.5 SW 6.9 0.0 2.5
03:31 3.1 0.3 82 995.7 4.5 SW 6.9 0.0 2.5
03:32 3.1 0.3 82 995.8 4.5 SW 6.9 0.0 2.5
03:33 3.1 0.3 82 995.7 4.5 SW 6.9 0.0 2.5
03:34 3.1 0.3 82 995.6 4.5 SW 6.9 0.0 2.5
03:35 3.1 0.3 82 995.7 4.5 SW 4.5 0.0 2.5
03:36 3.1 0.3 82 996.0 4.5 SW 4.5 0.0 2.6
03:38 3.2 0.4 82 996.0 5.4 W 6.9 1.5 2.6
03:39 3.2 0.4 82 995.9 6.9 W 6.9 1.5 2.7
03:40 3.2 0.4 82 996.0 7.6 WNW 7.6 2.3 2.8
03:41 3.2 0.4 82 995.8 6.9 SW 7.6 3.0 2.8
03:42 3.3 0.5 82 996.1 8.3 W 8.3 3.8 2.9
03:43 3.3 0.5 82 996.1 9.8 SW 9.8 3.0 2.9
03:44 3.3 0.5 82 995.8 7.6 WNW 9.8 3.0 2.9
03:45 3.4 0.6 82 996.0 7.6 W 9.8 2.3 3.0
03:46 3.4 0.6 82 996.0 6.0 W 9.8 3.0 3.0
03:47 3.4 0.6 82 995.9 9.2 SW 9.8 2.3 3.1
03:48 3.5 0.7 82 995.7 9.8 SW 9.8 3.0 3.1
03:49 3.5 0.7 82 995.6 12.1 W 12.1 3.0 3.1
03:50 3.5 0.7 82 995.8 9.8 SW 12.1 3.0 3.1
03:51 3.5 0.7 82 995.8 10.7 W 12.1 1.5 3.1
03:53 3.5 0.7 82 995.8 8.3 W 12.1 0.0 3.1
03:54 3.5 0.7 82 995.9 8.3 W 12.1 0.0 3.1
03:55 3.5 0.9 83 995.6 5.4 W 12.1 0.0 3.1
03:56 3.5 0.9 83 995.6 5.4 W 12.1 0.0 3.1
03:57 3.5 0.9 83 995.8 5.4 W 12.1 0.0 3.1
03:58 3.5 0.9 83 996.0 5.4 W 12.1 0.0 3.1
03:59 3.5 0.9 83 995.9 5.4 SW 12.1 0.0 3.1
04:00 3.5 0.9 83 995.9 5.4 SW 10.7 0.0 3.1
04:01 3.5 0.9 83 995.9 6.0 W 10.7 0.0 3.1
04:02 3.5 0.9 83 995.9 6.0 W 8.3 0.0 3.1
04:03 3.5 0.9 83 996.0 6.9 W 8.3 0.0 3.1
04:04 3.5 0.9 83 996.3 9.2 SW 9.2 0.8 3.3
04:06 3.5 0.9 83 996.2 9.8 W 9.8 3.0 3.4
04:07 3.5 0.9 83 996.4 10.7 W 10.7 3.8 3.5
04:08 3.5 0.9 83 996.6 12.1 SW 12.1 3.8 3.5
04:09 3.5 0.9 83 996.3 19.0 W 19.0 3.8 3.6
04:10 3.5 0.9 83 996.4 15.2 SW 19.0 4.5 3.7
04:11 3.5 0.9 83 996.4 14.5 W 19.0 3.8 3.7
04:12 3.4 0.8 83 996.5 11.4 W 19.0 3.8 3.8
04:13 3.4 0.8 83 996.5 9.8 W 19.0 3.8 3.8
04:14 3.3 0.5 82 996.2 13.0 W 19.0 3.8 3.8
04:15 3.3 0.5 82 996.4 13.0 W 19.0 3.0 3.9
04:16 3.2 0.4 82 996.3 13.0 W 19.0 2.3 3.9
04:17 3.2 0.4 82 996.1 8.3 N 19.0 1.5 3.9
04:18 3.2 0.4 82 995.9 6.9 W 19.0 2.3 4.0
04:20 3.1 0.3 82 996.0 5.4 W 14.5 0.8 4.0
04:21 3.1 0.3 82 996.0 6.0 W 13.0 1.5 4.0
04:22 3.0 0.2 82 995.8 6.0 W 13.0 1.5 4.0
04:23 3.0 0.2 82 995.9 4.5 W 13.0 0.8 4.0
04:24 3.0 0.2 82 995.9 4.5 W 13.0 0.8 4.0
04:25 3.0 0.2 82 995.8 4.5 W 13.0 0.8 4.0
04:26 3.0 0.2 82 995.8 4.5 W 8.3 0.0 4.0
04:27 3.0 0.2 82 995.6 4.5 SW 8.3 0.0 4.0
04:28 3.0 0.2 82 995.7 4.5 SW 8.3 0.0 4.0
04:29 3.0 0.2 82 995.8 7.6 W 8.3 0.0 4.0
04:30 3.0 0.2 82 995.8 7.6 W 8.3 0.0 4.0
04:31 3.0 0.2 82 995.7 7.6 W 7.6 0.0 4.0
04:32 2.9 0.1 82 995.8 8.3 W 8.3 0.0 4.0
04:33 2.9 0.1 82 995.7 8.3 W 8.3 0.0 4.0
04:35 2.9 0.1 82 995.8 6.9 W 8.3 0.0 4.0
04:36 2.9 0.1 82 995.7 6.9 W 8.3 0.0 4.0
04:37 2.9 0.1 82 995.7 6.9 W 8.3 0.0 4.0
04:38 3.0 0.2 82 995.7 8.3 W 8.3 0.0 4.0
04:39 3.0 0.2 82 995.8 6.0 WSW 8.3 0.0 4.0
04:40 3.0 0.2 82 995.6 7.6 W 8.3 0.0 4.0
04:41 3.0 0.2 82 995.6 6.0 W 8.3 0.0 4.0
04:42 3.0 0.2 82 995.8 7.6 SW 8.3 0.0 4.0
04:43 3.0 0.2 82 995.6 8.3 SW 8.3 0.0 4.0
04:44 3.0 0.2 82 995.8 8.3 W 8.3 0.0 4.0
04:45 3.0 0.2 82 995.6 6.0 W 8.3 0.0 4.0
04:46 3.0 0.2 82 995.7 6.0 W 8.3 0.0 4.0
04:47 3.0 0.2 82 995.6 6.0 W 8.3 0.0 4.0
04:49 3.0 0.2 82 995.5 7.6 W 8.3 0.0 4.0
04:50 3.0 0.2 82 995.6 6.9 W 8.3 0.0 4.0
04:51 3.0 0.2 82 995.7 7.6 W 8.3 0.0 4.0
04:52 3.0 0.2 82 995.7 7.6 SW 8.3 0.0 4.0
04:53 3.0 0.2 82 995.7 7.6 SW 8.3 0.0 4.0
04:54 3.0 0.2 82 995.5 7.6 SW 8.3 0.0 4.0
04:55 3.0 0.2 82 995.5 7.6 SW 7.6 0.0 4.0
04:56 3.0 0.2 82 995.7 7.6 NW 7.6 0.0 4.0
04:57 3.1 0.3 82 995.6 9.2 W 9.2 0.0 4.0
04:58 3.1 0.3 82 995.8 6.9 SW 9.2 0.0 4.0
04:59 3.1 0.3 82 995.7 10.7 W 10.7 0.0 4.0
05:00 3.1 0.3 82 995.6 10.7 W 10.7 0.0 4.0
05:01 3.1 0.3 82 995.6 10.7 W 10.7 0.0 4.0
05:03 3.1 0.3 82 995.7 10.7 W 10.7 0.0 4.0
05:04 3.1 0.3 82 995.5 10.7 W 10.7 0.0 4.0
05:05 3.1 0.3 82 995.5 10.7 W 10.7 0.0 4.0
05:06 3.1 0.3 82 995.6 10.7 W 10.7 0.0 4.0
05:07 3.2 0.4 82 995.5 8.3 W 10.7 0.0 4.0
05:08 3.2 0.4 82 995.7 8.3 W 10.7 0.0 4.0
05:09 3.3 0.5 82 995.4 7.6 W 10.7 0.0 4.0
05:10 3.3 0.5 82 995.7 7.6 W 10.7 0.0 4.0
05:11 3.3 0.5 82 995.6 6.9 W 10.7 0.0 4.0
05:12 3.3 0.5 82 995.7 7.6 W 10.7 0.0 4.0
05:13 3.3 0.5 82 995.6 7.6 W 10.7 0.0 4.0
05:14 3.3 0.5 82 995.5 7.6 W 10.7 0.0 4.0
05:15 3.3 0.5 82 995.7 8.3 SW 10.7 0.0 4.0
05:17 3.3 0.5 82 995.6 8.3 W 10.7 0.0 4.0
05:18 3.3 0.5 82 995.7 8.3 W 10.7 0.0 4.0
05:19 3.4 0.6 82 995.6 8.3 W 10.7 0.0 4.0
05:20 3.4 0.6 82 995.5 8.3 SW 10.7 0.0 4.0
05:21 3.4 0.6 82 995.6 6.9 SW 10.7 0.0 4.0
05:22 3.4 0.6 82 995.6 6.0 W 10.7 0.8 4.1
05:23 3.4 0.6 82 995.5 6.0 W 10.7 0.8 4.1
05:24 3.4 0.6 82 995.7 6.0 W 10.7 0.8 4.1
05:25 3.4 0.6 82 995.8 8.3 W 10.7 0.8 4.1
05:26 3.4 0.6 82 996.0 12.1 W 12.1 0.8 4.1
05:27 3.5 0.7 82 995.9 8.3 W 12.1 0.0 4.1
05:28 3.5 0.7 82 995.8 8.3 SW 12.1 0.0 4.1
05:29 3.5 0.7 82 995.5 8.3 SW 12.1 0.0 4.1
05:31 3.5 0.7 82 995.6 9.8 NW 12.1 0.0 4.1
05:32 3.5 0.7 82 995.7 9.8 NW 12.1 0.0 4.1
05:33 3.6 0.8 82 995.9 7.6 WNW 12.1 0.0 4.1
05:34 3.6 0.8 82 995.7 6.0 SW 12.1 0.0 4.1
05:35 3.6 0.8 82 995.7 9.2 W 12.1 0.0 4.1
05:36 3.6 0.8 82 995.7 9.2 W 12.1 0.0 4.1
05:37 3.6 0.8 82 995.8 9.2 S 9.8 0.0 4.1
05:38 3.6 0.8 82 995.6 9.2 W 9.8 0.0 4.1
05:39 3.6 0.8 82 996.1 8.3 W 9.8 0.0 4.1
05:40 3.7 0.9 82 995.8 9.2 SW 9.8 0.0 4.1
05:41 3.7 0.9 82 995.8 11.4 E 11.4 0.0 4.1
05:42 3.7 0.9 82 995.9 11.4 E 11.4 0.0 4.1
05:43 3.7 0.9 82 995.6 11.4 E 11.4 0.0 4.1
05:45 3.8 1.0 82 996.0 9.8 SW 15.2 0.8 4.2
05:46 3.8 1.0 82 995.8 15.2 NNW 15.2 0.8 4.2
05:47 3.8 1.0 82 995.8 15.2 SW 16.8 0.8 4.2
05:48 3.8 1.0 82 995.9 20.6 SW 20.6 0.8 4.2
05:49 3.8 1.0 82 996.2 18.3 W 20.6 1.5 4.2
05:50 3.8 1.0 82 996.1 15.9 W 20.6 1.5 4.3
05:51 3.8 1.0 82 996.2 15.9 W 20.6 1.5 4.3
05:52 3.8 1.0 82 996.1 15.9 W 20.6 1.5 4.3
05:53 3.8 1.0 82 996.3 15.9 W 20.6 1.5 4.3
05:54 3.7 0.7 81 996.1 15.2 N 20.6 1.5 4.3
05:55 3.6 0.6 81 995.8 10.7 W 20.6 1.5 4.4
05:56 3.6 0.6 81 996.1 9.8 NW 20.6 1.5 4.4
05:57 3.5 0.6 81 996.1 7.6 W 20.6 1.5 4.4
05:59 3.5 0.6 81 996.0 7.6 W 18.3 0.8 4.4
06:00 3.3 0.4 81 995.9 11.4 NW 15.9 0.0 4.5
06:01 3.3 0.4 81 996.0 9.2 SW 15.9 0.8 4.5
06:02 3.3 0.4 81 995.9 9.8 W 15.9 0.8 4.5
06:03 3.3 0.4 81 996.0 10.7 SW 15.2 0.8 4.5
06:04 3.3 0.4 81 996.0 9.8 WSW 15.2 0.8 4.5
06:05 3.2 0.3 81 995.8 9.2 W 11.4 0.8 4.5
06:06 3.2 0.3 81 995.8 9.8 SW 11.4 0.0 4.5
06:07 3.2 0.3 81 995.9 9.2 W 11.4 0.0 4.5
06:08 3.2 0.3 81 996.1 10.7 NW 11.4 0.0 4.5
06:09 3.2 0.3 81 995.9 10.7 W 11.4 0.0 4.5
06:10 3.2 0.3 81 995.9 12.1 W 12.1 0.8 4.5
06:11 3.3 0.4 81 995.9 9.2 W 12.1 0.8 4.5
06:13 3.3 0.4 81 995.9 9.8 W 12.1 0.8 4.5
06:14 3.3 0.4 81 995.8 9.8 W 12.1 0.8 4.5
06:15 3.3 0.4 81 995.7 9.8 W 12.1 0.0 4.5
06:16 3.3 0.4 81 996.0 9.8 W 12.1 0.0 4.5
06:17 3.3 0.4 81 996.1 9.2 W 12.1 0.0 4.5
06:18 3.3 0.4 81 995.9 8.3 W 12.1 0.0 4.5
06:19 3.3 0.4 81 996.0 6.0 W 12.1 0.0 4.5
06:20 3.3 0.4 81 996.0 7.6 W 12.1 0.0 4.5
06:21 3.3 0.4 81 995.8 9.8 N 10.7 0.0 4.5
06:22 3.3 0.4 81 995.9 8.3 NW 10.7 0.0 4.5
06:23 3.3 0.4 81 995.8 8.3 W 10.7 0.0 4.5
06:24 3.3 0.4 81 996.0 7.6 W 10.7 0.0 4.5
06:25 3.3 0.4 81 996.0 9.2 W 9.8 0.0 4.5
06:27 3.3 0.4 81 996.0 9.2 W 9.8 0.0 4.5
06:28 3.3 0.4 81 995.9 9.8 W 9.8 0.0 4.5
06:29 3.3 0.4 81 995.9 13.0 W 13.0 0.0 4.5
06:30 3.4 0.5 81 995.9 9.8 N 13.0 0.0 4.5
06:31 3.4 0.5 81 996.0 9.8 W 13.0 0.0 4.5
06:32 3.4 0.5 81 996.0 9.8 W 13.0 0.0 4.5
06:33 3.4 0.5 81 996.0 6.9 W 13.0 0.0 4.5
06:34 3.4 0.5 81 996.0 8.3 W 13.0 0.0 4.5
06:35 3.4 0.5 81 995.9 8.3 SW 13.0 0.0 4.5
06:36 3.4 0.5 81 995.8 8.3 W 13.0 0.0 4.5
06:37 3.5 0.6 81 995.9 13.0 W 13.0 0.0 4.5
06:38 3.5 0.6 81 995.9 15.2 W 15.2 0.8 4.6
06:39 3.5 0.6 81 996.1 13.0 W 15.2 0.8 4.6
06:41 3.5 0.6 81 995.9 10.7 W 15.2 0.8 4.6
06:42 3.5 0.6 81 995.8 10.7 W 15.2 0.8 4.6
06:43 3.5 0.6 81 995.8 10.7 W 15.2 0.0 4.6
06:44 3.6 0.6 81 995.8 11.4 NW 15.2 0.0 4.6
06:45 3.6 0.6 81 996.0 11.4 W 15.2 0.0 4.6
06:46 3.6 0.6 81 996.1 9.8 WSW 15.2 0.0 4.6
06:47 3.6 0.6 81 995.8 9.2 NW 15.2 0.0 4.6
06:48 3.6 0.6 81 995.9 8.3 W 15.2 0.0 4.6
06:49 3.6 0.6 81 996.0 9.2 W 15.2 0.0 4.6
06:50 3.6 0.6 81 995.7 6.9 W 13.0 0.0 4.6
06:51 3.5 0.6 81 995.7 9.8 W 11.4 0.0 4.6
06:52 3.5 0.4 80 995.8 8.3 W 11.4 0.0 4.6
06:53 3.5 0.4 80 995.7 7.6 W 11.4 0.0 4.6
06:55 3.5 0.4 80 995.9 9.2 W 11.4 0.0 4.6
06:56 3.4 0.3 80 995.9 7.6 W 11.4 0.0 4.6
06:57 3.4 0.3 80 996.0 7.6 W 11.4 0.0 4.6
06:58 3.4 0.3 80 995.9 7.6 W 11.4 0.0 4.6
06:59 3.4 0.3 80 995.8 9.2 W 11.4 0.0 4.6
07:00 3.4 0.3 80 996.1 9.2 W 11.4 0.0 4.6
07:01 3.4 0.3 80 996.0 9.2 W 11.4 0.0 4.6
07:02 3.4 0.3 80 996.2 9.2 W 11.4 0.0 4.6
07:03 3.4 0.3 80 996.0 9.2 W 10.7 0.0 4.6
07:04 3.4 0.3 80 996.1 9.2 W 10.7 0.0 4.6
07:05 3.4 0.3 80 996.0 9.2 W 10.7 0.0 4.6
07:06 3.4 0.3 80 995.9 9.2 W 9.2 0.0 4.6
07:07 3.4 0.3 80 995.7 9.2 W 9.2 0.0 4.6
07:09 3.4 0.3 80 995.9 9.2 W 9.2 0.0 4.6
07:10 3.2 -0.3 78 996.0 6.9 SW 9.2 0.0 4.6
07:11 3.1 -0.5 77 995.8 6.9 NW 9.2 0.0 4.6
07:12 3.1 -0.5 77 996.0 4.5 W 9.2 0.0 4.6
07:13 3.1 -0.5 77 996.0 4.5 W 9.2 0.0 4.6
07:14 3.1 -0.5 77 995.7 6.0 W 9.2 0.0 4.6
07:15 3.1 -0.5 77 995.9 6.0 W 9.2 0.0 4.6
07:16 3.1 -0.5 77 995.8 6.0 W 9.2 0.0 4.6
07:17 3.1 -0.5 77 995.8 6.0 SW 9.2 0.0 4.6
07:18 3.1 -0.5 77 995.8 7.6 W 9.2 0.0 4.6
07:19 3.1 -0.5 77 996.0 5.4 W 9.2 0.0 4.6
07:20 3.1 -0.5 77 995.8 4.5 W 7.6 0.0 4.6
07:21 3.1 -0.5 77 995.7 6.9 SW 7.6 0.0 4.6
07:22 3.1 -0.5 77 995.9 4.5 W 7.6 0.0 4.6
07:24 3.1 -0.5 77 995.9 5.4 W 7.6 0.0 4.6
07:25 3.1 -0.5 77 995.9 5.4 W 7.6 0.0 4.6
07:26 3.0 -0.6 77 996.0 6.9 W 7.6 0.0 4.6
07:27 3.0 -0.6 77 996.2 5.4 W 7.6 0.0 4.6
07:28 3.0 -0.6 77 996.2 5.4 W 7.6 0.0 4.6
07:29 3.0 -0.6 77 996.0 5.4 W 6.9 0.0 4.6
07:30 3.0 -0.6 77 996.0 5.4 W 6.9 0.0 4.6
07:31 3.1 -0.5 77 995.9 6.0 W 6.9 0.0 4.6
07:32 3.1 -0.5 77 996.1 6.0 W 6.9 0.0 4.6
07:33 3.1 -0.5 77 995.9 6.9 W 6.9 0.0 4.6
07:34 3.1 -0.5 77 996.0 6.9 W 6.9 0.0 4.6
07:35 3.1 -0.4 78 995.9 4.5 SW 6.9 0.0 4.6
07:36 3.1 -0.4 78 996.0 6.9 W 6.9 0.0 4.6
07:38 3.1 -0.4 78 996.0 7.6 SW 7.6 0.0 4.6
07:39 3.1 -0.4 78 996.0 8.3 SW 8.3 0.0 4.6
07:40 3.1 -0.4 78 995.9 6.9 W 8.3 0.0 4.6
07:41 3.0 -0.5 78 995.8 11.4 SW 11.4 0.0 4.6
07:42 3.0 -0.5 78 996.0 11.4 W 11.4 0.0 4.6
07:43 3.0 -0.5 78 996.0 11.4 W 11.4 0.0 4.6
07:44 3.0 -0.5 78 996.0 7.6 SW 11.4 0.8 4.7
07:45 3.0 -0.5 78 996.2 8.3 SW 11.4 0.8 4.7
07:46 3.1 -0.4 78 996.2 7.6 W 11.4 0.8 4.7
07:47 3.1 -0.4 78 996.3 7.6 W 11.4 0.8 4.7
07:48 3.1 -0.4 78 996.6 10.7 W 11.4 0.8 4.7
07:49 3.2 -0.1 79 996.5 18.3 NW 18.3 0.0 4.7
07:50 3.2 -0.1 79 996.5 15.2 W 18.3 0.0 4.7
07:52 3.3 0.0 79 996.3 15.2 NW 21.3 0.0 4.7
07:53 3.3 0.0 79 996.4 10.7 SW 21.3 0.0 4.7
07:54 3.4 0.1 79 996.4 13.6 S 21.3 0.0 4.7
07:55 3.4 0.1 79 996.7 15.9 W 21.3 0.0 4.7
07:56 3.4 0.1 79 996.7 15.9 W 21.3 0.0 4.7
07:57 3.5 0.0 78 996.6 13.6 NW 21.3 0.0 4.7
07:58 3.5 0.0 78 996.9 17.4 SW 21.3 0.0 4.7
07:59 3.5 0.0 78 997.2 25.1 W 25.1 0.0 4.7
08:00 3.5 0.0 78 997.0 25.1 W 25.1 0.0 4.7
08:01 3.5 0.0 78 997.0 22.1 SW 28.2 0.8 4.7
08:02 3.4 -0.1 78 996.7 16.8 NW 28.2 0.8 4.7
08:03 3.3 -0.3 77 996.8 9.2 W 28.2 0.8 4.8
08:04 3.3 -0.3 77 996.7 13.6 W 28.2 1.5 4.8
08:06 3.2 -0.4 77 996.7 13.6 SW 28.2 0.8 4.8
08:07 3.0 -0.6 77 996.5 12.1 SW 28.2 0.8 4.8
08:08 3.0 -0.6 77 996.5 10.7 WSW 28.2 0.8 4.8
08:09 2.9 -0.7 77 996.7 9.8 NNW 28.2 0.0 4.8
08:10 2.9 -0.7 77 996.7 9.2 W 28.2 0.8 4.9
08:11 2.9 -0.7 77 996.4 6.9 SW 22.1 0.8 4.9
08:12 2.8 -0.8 77 996.5 8.3 W 17.4 0.8 4.9
08:13 2.8 -0.8 77 996.4 8.3 W 17.4 0.8 4.9
08:14 2.8 -0.8 77 996.4 9.2 SW 17.4 0.8 4.9
08:15 2.7 -0.9 77 996.5 8.3 NW 17.4 0.0 4.9
08:16 2.7 -0.9 77 996.3 6.9 NW 13.6 0.0 4.9
08:17 2.7 -0.9 77 996.5 6.9 W 12.1 0.0 4.9
08:18 2.7 -0.9 77 996.4 5.4 W 10.7 0.0 4.9
08:20 2.6 -0.8 78 996.3 5.4 W 9.8 0.0 4.9
08:21 2.6 -0.8 78 996.4 6.0 W 9.8 0.0 4.9
08:22 2.6 -0.8 78 996.3 8.3 W 9.8 0.0 4.9
08:23 2.6 -0.8 78 996.3 9.2 W 9.8 0.0 4.9
08:24 2.6 -0.8 78 996.3 9.2 W 9.8 0.0 4.9
08:25 2.5 -0.9 78 996.1 6.9 W 9.8 0.0 4.9
08:26 2.5 -0.9 78 996.3 6.9 W 9.8 0.0 4.9
08:27 2.5 -0.9 78 996.4 6.0 NW 9.8 0.0 4.9
08:28 2.5 -0.9 78 996.3 5.4 NW 9.8 0.0 4.9
08:29 2.5 -0.8 79 996.4 6.0 W 9.8 0.0 4.9
08:30 2.5 -0.8 79 996.4 6.9 W 9.2 0.0 4.9
08:31 2.5 -0.8 79 996.4 6.9 NW 9.2 0.0 4.9
08:32 2.5 -0.8 79 996.3 6.0 W 9.2 0.0 4.9
08:33 2.5 -0.8 79 996.3 7.6 W 9.2 0.0 4.9
08:35 2.4 -0.9 79 996.2 7.6 W 8.3 0.0 4.9
08:36 2.4 -0.9 79 996.3 6.9 W 8.3 0.0 4.9
08:37 2.4 -0.9 79 996.5 6.0 SW 8.3 0.0 4.9
08:38 2.4 -0.9 79 996.0 6.0 W 8.3 0.0 4.9
08:39 2.4 -0.9 79 996.2 6.0 SW 8.3 0.0 4.9
08:40 2.4 -0.7 80 996.0 6.0 SW 8.3 0.0 4.9
08:41 2.4 -0.7 80 996.2 5.4 W 8.3 0.0 4.9
08:42 2.4 -0.7 80 996.2 6.0 WNW 8.3 0.0 4.9
08:43 2.4 -0.7 80 996.0 5.4 SW 8.3 0.0 4.9
08:44 2.4 -0.7 80 996.1 3.8 NW 8.3 0.0 4.9
08:45 2.4 -0.7 80 996.1 6.0 NW 8.3 0.0 4.9
08:46 2.4 -0.7 80 996.1 4.5 W 6.9 0.0 4.9
08:47 2.4 -0.7 80 996.0 6.9 SW 6.9 0.0 4.9
08:48 2.5 -0.6 80 996.4 6.9 SW 6.9 0.0 4.9
08:49 2.5 -0.6 80 996.0 5.4 SW 6.9 0.0 4.9
08:51 2.5 -0.6 80 996.2 6.9 SW 6.9 0.0 4.9
08:52 2.5 -0.6 80 996.0 6.0 SW 6.9 0.0 4.9
08:53 2.5 -0.6 80 996.4 6.9 SW 6.9 0.0 4.9
08:54 2.5 -0.6 80 996.0 6.9 W 6.9 0.0 4.9
08:55 2.6 -0.5 80 996.0 7.6 NW 9.8 0.0 4.9
08:56 2.6 -0.5 80 996.2 12.1 W 12.1 0.8 4.9
08:57 2.6 -0.5 80 996.0 10.7 W 12.1 0.8 4.9
08:58 2.6 -0.5 80 996.1 8.3 SW 12.1 0.8 4.9
08:59 2.6 -0.5 80 996.0 11.4 NW 12.1 0.8 4.9
09:00 2.7 -0.4 80 996.0 9.8 SW 12.1 0.8 4.9
09:01 2.7 -0.4 80 996.0 9.8 SW 12.1 0.0 4.9
09:02 2.7 -0.4 80 995.9 9.8 SW 12.1 0.0 4.9
09:03 2.7 -0.4 80 996.1 9.8 SW 12.1 0.0 4.9
09:04 2.7 -0.4 80 995.9 9.8 SW 12.1 0.0 4.9
09:05 2.7 -0.4 80 996.1 9.8 SW 12.1 0.0 4.9
09:06 2.8 -0.3 80 996.2 8.3 W 12.1 0.0 4.9
09:08 2.9 -0.2 80 996.4 9.8 W 11.4 0.8 5.0
09:09 2.9 -0.2 80 996.2 7.6 W 9.8 0.8 5.0
09:10 2.9 -0.2 80 996.3 9.8 W 9.8 0.8 5.0
09:11 3.0 -0.1 80 996.2 7.6 WNW 9.8 0.8 5.0
09:12 3.0 -0.1 80 996.3 7.6 W 9.8 0.8 5.0
09:13 3.0 0.1 81 996.3 13.6 NW 13.6 0.0 5.0
09:14 3.1 0.2 81 996.1 8.3 SW 13.6 0.0 5.0
09:15 3.1 0.2 81 996.3 12.1 W 13.6 0.0 5.0
09:16 3.1 0.2 81 996.3 12.1 W 13.6 0.0 5.0
09:17 3.3 0.4 81 996.3 11.4 W 13.6 0.8 5.0
09:18 3.3 0.4 81 996.2 10.7 W 13.6 0.8 5.0
09:19 3.4 0.5 81 996.3 13.0 W 13.6 0.8 5.0
09:20 3.5 0.6 81 996.2 10.7 W 13.6 0.8 5.0
09:21 3.6 0.6 81 996.2 10.7 W 13.6 0.8 5.0
09:22 3.6 0.6 81 996.1 13.6 NW 13.6 0.0 5.0
09:23 3.8 0.8 81 996.3 21.3 NW 21.3 0.0 5.0
09:24 3.9 0.9 81 996.3 16.8 W 21.3 0.0 5.0
09:26 4.0 1.0 81 996.4 21.3 W 21.3 0.0 5.0
09:27 4.1 1.1 81 996.5 19.7 SW 21.3 0.0 5.0
09:28 4.1 1.1 81 996.5 13.0 SW 21.3 0.0 5.1
09:29 4.1 1.1 81 996.5 13.0 SW 21.3 0.8 5.1
09:30 4.1 1.1 81 996.4 19.0 W 21.3 0.8 5.1
09:31 4.1 1.1 81 996.5 16.8 W 21.3 0.8 5.1
09:32 4.1 1.1 81 996.5 12.1 W 21.3 0.8 5.1
09:33 4.1 1.1 81 996.3 9.8 NW 21.3 0.8 5.1
09:34 4.1 1.1 81 996.3 12.1 SW 21.3 0.0 5.1
09:35 4.1 1.1 81 996.2 12.1 SW 21.3 0.0 5.1
09:36 4.1 1.1 81 996.4 14.5 W 21.3 0.0 5.1
09:37 4.1 1.1 81 996.4 13.0 W 19.7 0.0 5.1
09:39 4.1 1.0 80 996.4 9.2 WNW 19.0 0.0 5.1
09:40 4.1 1.0 80 996.4 9.8 W 16.8 0.0 5.1
09:41 4.1 1.0 80 996.4 10.7 NW 14.5 0.0 5.1
09:42 4.2 1.1 80 996.5 13.0 NW 14.5 0.0 5.1
09:43 4.2 1.1 80 996.5 11.4 W 14.5 0.0 5.1
09:44 4.2 1.1 80 996.5 11.4 W 14.5 0.0 5.1
09:45 4.2 1.1 80 996.6 9.2 SW 14.5 0.0 5.1
09:46 4.3 1.2 80 996.7 7.6 NW 14.5 0.0 5.1
09:47 4.2 1.1 80 996.4 9.2 W 13.6 0.8 5.2
09:48 4.3 1.2 80 996.6 9.8 W 13.6 0.8 5.2
09:49 4.3 1.2 80 996.6 11.4 NW 13.6 0.8 5.2
09:50 4.3 1.2 80 996.4 16.8 SW 16.8 0.8 5.2
09:51 4.4 1.3 80 996.5 13.0 W 16.8 0.8 5.2
09:52 4.4 1.3 80 996.6 18.3 SW 18.3 0.0 5.2
09:55 4.5 1.4 80 996.7 12.1 W 18.3 0.0 5.2
09:56 4.5 1.4 80 996.6 15.2 W 18.3 0.0 5.2
09:57 4.5 1.4 80 996.7 13.6 W 18.3 0.0 5.2
09:58 4.5 1.4 80 996.7 13.6 NW 18.3 0.0 5.2
09:59 4.5 1.4 80 996.7 9.2 SW 18.3 0.0 5.2
10:00 4.6 1.5 80 996.6 9.8 W 18.3 0.0 5.2
10:01 4.6 1.5 80 996.5 9.8 W 18.3 0.0 5.2
10:02 4.6 1.5 80 996.5 9.8 W 18.3 0.0 5.2
10:03 4.6 1.5 80 996.5 9.8 W 18.3 0.0 5.2
10:04 4.6 1.5 80 996.5 9.8 W 15.2 0.0 5.2
10:05 4.6 1.5 80 996.7 9.8 W 15.2 0.0 5.2
10:06 4.7 1.5 80 996.8 11.4 SW 15.2 0.0 5.2
10:07 4.7 1.5 80 996.8 10.7 W 13.6 0.0 5.2
10:09 4.7 1.5 80 997.0 19.0 W 19.0 0.0 5.2
10:10 4.7 1.5 80 996.6 23.5 SW 23.5 0.8 5.2
10:11 4.6 1.5 80 996.8 15.9 NW 23.5 0.8 5.2
10:12 4.5 1.2 79 997.0 15.9 W 23.5 0.8 5.3
10:13 4.5 1.2 79 996.9 20.6 W 23.5 1.5 5.3
10:14 4.4 1.1 79 996.8 20.6 S 23.5 1.5 5.3
10:15 4.4 0.9 78 996.6 14.5 W 23.5 0.8 5.3
10:16 4.4 0.9 78 996.6 14.5 W 23.5 0.8 5.3
10:17 4.3 0.6 77 996.5 13.6 W 23.5 0.8 5.3
10:18 4.3 0.6 77 996.7 12.1 E 23.5 0.0 5.3
10:19 4.2 0.5 77 996.6 9.8 WNW 23.5 0.0 5.3
10:20 4.2 0.4 76 996.6 7.6 NW 23.5 0.0 5.3
10:21 4.2 0.4 76 996.5 9.2 W 20.6 0.0 5.3
10:23 4.3 0.4 76 996.8 7.6 N 20.6 0.8 5.4
10:24 4.3 0.4 76 996.6 7.6 W 14.5 0.8 5.4
10:25 4.4 0.7 77 996.5 6.0 W 14.5 0.8 5.4
10:26 4.4 0.7 77 996.8 7.6 NW 13.6 0.8 5.4
10:27 4.5 1.0 78 996.6 6.9 W 13.6 0.8 5.4
10:28 4.5 1.0 78 996.7 9.2 NW 12.1 0.0 5.4
10:29 4.5 1.0 78 996.6 9.8 NW 9.8 0.0 5.4
10:30 4.6 1.1 78 996.7 7.6 SW 9.8 0.0 5.4
10:31 4.6 1.1 78 996.5 6.0 SW 9.8 0.0 5.4
10:32 4.7 1.2 78 996.7 9.2 NNE 9.8 0.0 5.4
10:33 4.7 1.2 78 996.8 15.2 W 15.2 0.0 5.4
10:34 4.8 1.3 78 996.7 13.0 NW 15.2 0.0 5.4
10:35 4.8 1.5 79 996.5 11.4 S 15.2 0.0 5.4
10:36 4.8 1.5 79 996.5 19.7 SW 19.7 0.0 5.4
10:37 4.8 1.3 78 996.6 11.4 NW 19.7 0.0 5.4
10:38 4.8 1.3 78 996.6 9.2 WNW 19.7 0.0 5.4
10:40 4.9 1.4 78 996.6 8.3 SW 19.7 0.0 5.4
10:41 4.9 1.4 78 996.5 7.6 SW 19.7 0.0 5.4
10:42 4.9 1.4 78 997.0 9.2 NW 19.7 0.0 5.4
10:43 5.0 1.5 78 996.7 8.3 W 19.7 0.0 5.4
10:44 5.0 1.5 78 996.7 8.3 W 19.7 0.0 5.4
10:45 5.0 1.5 78 996.8 10.7 W 19.7 0.0 5.4
10:46 5.0 1.5 78 996.8 10.7 W 19.7 0.0 5.4
10:47 5.0 1.5 78 996.8 9.2 SW 11.4 0.0 5.4
10:48 5.1 1.6 78 996.7 8.3 W 10.7 0.8 5.4
10:49 5.2 1.7 78 996.7 8.3 W 10.7 0.8 5.4
10:50 5.4 1.9 78 996.8 13.0 SSW 13.0 0.8 5.4
10:51 5.6 1.9 77 996.8 13.6 SW 13.6 0.8 5.4
10:52 5.7 2.0 77 996.8 11.4 NW 13.6 0.8 5.4
10:54 5.8 1.9 76 996.8 12.1 NW 13.6 0.0 5.4
10:55 5.8 1.7 75 996.6 22.1 SW 22.1 0.0 5.4
10:56 5.9 1.8 75 996.8 17.4 W 22.1 0.0 5.4
10:57 5.9 1.6 74 996.8 15.2 NW 22.1 0.0 5.4
10:58 5.9 1.6 74 996.9 18.3 W 22.1 0.0 5.4
10:59 5.9 1.6 74 996.9 16.8 W 22.1 0.0 5.4
11:00 5.9 1.6 74 996.9 16.8 W 22.1 0.0 5.4
11:01 5.9 1.6 74 997.0 16.8 W 22.1 0.0 5.4
11:02 5.9 1.6 74 996.8 16.8 W 22.1 0.0 5.4
11:03 5.9 1.6 74 996.6 16.8 W 22.1 0.0 5.4
11:04 5.9 1.6 74 996.9 16.8 W 22.1 0.0 5.4
11:05 5.9 1.6 74 997.0 16.8 W 22.1 0.0 5.4
11:06 6.2 1.3 71 996.6 19.7 W 19.7 0.0 5.4
11:08 6.2 1.5 72 997.0 18.3 W 19.7 0.0 5.4
11:09 6.2 1.5 72 997.0 18.3 W 19.7 0.0 5.4
11:10 6.2 1.3 71 997.0 17.4 WNW 19.7 0.0 5.4
11:11 6.3 1.4 71 996.9 14.5 W 19.7 0.0 5.4
11:12 6.3 1.4 71 996.7 14.5 W 19.7 0.0 5.4
11:14 6.5 1.4 70 996.9 14.5 SW 19.7 0.0 5.4
11:15 6.7 1.6 70 996.8 12.1 N 19.7 0.0 5.4
11:16 6.7 1.8 71 997.0 10.7 W 18.3 0.0 5.4
11:17 6.8 1.9 71 996.8 13.6 W 18.3 0.0 5.4
11:18 6.9 2.0 71 996.8 17.4 SW 18.3 0.0 5.4
11:19 6.9 1.8 70 996.9 16.8 W 18.3 0.0 5.4
11:20 6.9 1.8 70 996.8 18.3 W 18.3 0.0 5.4
11:21 6.8 1.5 69 996.7 10.7 WNW 18.3 0.0 5.4
11:22 6.9 1.6 69 996.8 10.7 W 18.3 0.0 5.4
11:23 6.9 1.6 69 996.9 14.5 W 18.3 0.0 5.4
11:24 6.9 1.6 69 996.6 16.8 SW 18.3 0.0 5.4
11:25 7.0 1.7 69 996.8 15.9 W 21.3 0.0 5.4
11:26 7.0 1.7 69 996.6 19.0 SW 21.3 0.0 5.4
11:28 6.9 1.2 67 997.0 19.0 W 21.3 0.0 5.4
11:29 6.9 1.2 67 996.8 19.0 W 21.3 0.0 5.4
11:30 6.8 1.1 67 996.8 22.1 W 22.1 0.0 5.4
11:31 6.7 1.0 67 997.0 16.8 W 23.5 0.0 5.4
11:32 6.7 1.0 67 997.0 16.8 W 23.5 0.0 5.4
11:33 6.6 0.9 67 996.9 19.0 W 23.5 0.0 5.4
11:34 6.6 0.9 67 997.0 18.3 W 23.5 0.0 5.4
11:35 6.6 0.9 67 996.9 18.3 W 23.5 0.0 5.4
11:36 6.5 0.8 67 997.0 13.6 NW 23.5 0.0 5.4
11:37 6.4 0.7 67 997.0 15.9 SW 23.5 0.0 5.4
11:38 6.3 0.6 67 997.0 12.1 W 23.5 0.0 5.4
11:39 6.3 0.6 67 997.0 12.1 W 23.5 0.0 5.4
11:40 6.3 0.8 68 996.9 16.8 W 23.5 0.0 5.4
11:42 6.4 1.1 69 996.9 14.5 W 19.7 0.0 5.4
11:43 6.5 1.4 70 996.9 11.4 W 18.3 0.0 5.4
11:44 6.5 1.4 70 996.9 13.0 SW 18.3 0.0 5.4
11:45 6.6 1.5 70 997.0 18.3 W 18.3 0.0 5.4
11:46 6.6 1.5 70 996.9 18.3 W 18.3 0.0 5.4
11:47 6.5 1.4 70 996.9 17.4 SW 18.3 0.0 5.4
11:48 6.5 1.2 69 996.7 15.2 SW 18.3 0.0 5.4
11:49 6.5 1.2 69 996.9 15.2 W 18.3 0.0 5.4
11:50 6.5 1.2 69 996.9 15.2 W 18.3 0.0 5.4
11:51 6.6 1.3 69 996.8 16.8 W 18.3 0.0 5.4
11:52 6.7 1.6 70 996.9 16.8 W 18.3 0.0 5.4
11:53 6.9 1.6 69 997.0 22.8 W 22.8 0.0 5.4
11:54 6.9 1.6 69 996.9 13.6 W 22.8 0.0 5.4
11:56 6.8 1.3 68 996.9 13.6 W 22.8 0.0 5.4
11:57 6.8 1.3 68 996.8 14.5 NW 22.8 0.0 5.4
11:58 6.8 1.1 67 997.0 21.3 W 22.8 0.0 5.4
11:59 6.9 1.2 67 996.8 19.0 W 22.8 0.0 5.4
12:00 6.9 1.2 67 996.8 19.0 W 22.8 0.0 5.4
12:01 6.9 1.2 67 996.8 19.0 W 22.8 0.0 5.4
12:02 6.9 1.2 67 997.0 19.0 W 22.8 0.0 5.4
12:03 6.9 1.2 67 996.7 19.0 W 22.8 0.0 5.4
12:04 6.9 1.2 67 997.0 19.0 W 21.3 0.0 5.4
12:05 6.9 1.2 67 997.0 19.0 W 21.3 0.0 5.4
12:06 6.8 0.7 65 996.9 25.1 NW 25.1 0.0 5.4
12:07 6.8 0.7 65 996.7 18.3 SW 25.1 0.0 5.4
12:08 6.7 0.8 66 996.7 18.3 SW 25.1 0.0 5.4
12:09 6.7 0.8 66 997.0 18.3 W 25.1 0.0 5.4
12:11 6.6 0.7 66 996.8 19.0 SW 25.1 0.0 5.4
12:12 6.6 0.7 66 996.8 18.3 W 25.1 0.0 5.4
12:13 6.5 0.6 66 996.8 16.8 WNW 25.1 0.0 5.4
12:14 6.5 0.6 66 996.9 15.9 W 25.1 0.0 5.4
12:15 6.5 0.6 66 996.9 19.0 SSE 25.1 0.0 5.4
12:16 6.4 0.5 66 996.9 19.0 N 25.1 0.0 5.4
12:17 6.4 0.7 67 996.9 16.8 W 19.0 0.0 5.4
12:18 6.4 0.7 67 996.9 19.7 SW 19.7 0.0 5.4
12:19 6.3 0.6 67 996.7 18.3 WNW 19.7 0.0 5.4
12:20 6.3 0.6 67 996.7 18.3 W 19.7 0.0 5.4
12:21 6.3 0.8 68 996.8 15.9 SW 19.7 0.0 5.4
12:22 6.3 0.8 68 996.8 16.8 SW 19.7 0.0 5.4
12:23 6.3 0.8 68 997.0 20.6 W 20.6 0.0 5.4
12:25 6.2 0.7 68 996.9 13.6 W 20.6 0.0 5.4
12:26 6.2 0.7 68 996.7 14.5 W 20.6 0.0 5.4
12:27 6.2 0.7 68 996.9 21.3 W 21.3 0.0 5.4
12:28 6.1 0.6 68 996.8 16.8 W 21.3 0.0 5.4
12:29 6.1 0.6 68 996.8 16.8 W 21.3 0.0 5.4
12:30 6.1 0.4 67 996.9 12.1 NW 21.3 0.0 5.4
12:31 6.1 0.4 67 996.8 11.4 SW 21.3 0.0 5.4
12:32 6.0 0.3 67 997.0 11.4 W 21.3 0.0 5.4
12:33 6.0 0.3 67 997.1 17.4 W 21.3 0.0 5.4
12:34 6.0 0.1 66 997.2 11.4 SW 21.3 0.0 5.4
12:35 5.9 0.0 66 997.1 10.7 W 21.3 0.0 5.4
12:36 5.9 0.0 66 997.1 9.2 W 21.3 0.0 5.4
12:37 5.9 0.0 66 997.0 9.2 W 21.3 0.0 5.4
12:38 5.9 0.0 66 996.9 12.1 WNW 17.4 0.0 5.4
12:40 6.0 0.3 67 997.1 13.0 W 17.4 0.0 5.4
12:41 6.0 0.3 67 997.2 10.7 W 17.4 0.0 5.4
12:42 6.1 0.4 67 996.8 12.1 W 17.4 0.0 5.4
12:43 6.1 0.4 67 997.1 13.0 NW 17.4 0.0 5.4
12:44 6.1 0.4 67 997.1 13.0 NW 13.6 0.0 5.4
12:45 6.1 0.4 67 997.1 19.7 NW 19.7 0.0 5.4
12:46 6.1 0.4 67 997.0 17.4 W 19.7 0.0 5.4
12:47 6.1 0.4 67 996.9 21.3 NW 21.3 0.0 5.4
12:48 6.1 0.2 66 997.0 19.7 W 21.3 0.0 5.4
12:49 6.0 0.1 66 997.2 15.2 W 21.3 0.0 5.4
12:50 6.0 -0.1 65 997.0 15.2 W 21.3 0.0 5.4
12:51 6.0 -0.1 65 996.7 16.8 SW 21.3 0.0 5.4
12:52 5.9 -0.2 65 996.8 18.3 W 21.3 0.0 5.4
12:54 5.9 -0.2 65 997.0 15.2 W 21.3 0.0 5.4
12:55 5.8 -0.3 65 997.0 10.7 NW 21.3 0.0 5.4
12:56 5.8 -0.5 64 997.0 15.2 W 21.3 0.0 5.4
12:57 5.8 -0.5 64 996.9 12.1 SW 19.7 0.0 5.4
12:58 5.9 -0.2 65 996.9 12.1 W 18.3 0.0 5.4
12:59 6.0 -0.1 65 996.7 15.2 W 18.3 0.0 5.4
13:00 6.0 0.1 66 996.8 14.5 W 18.3 0.0 5.4
13:01 6.0 0.1 66 996.9 14.5 W 18.3 0.0 5.4
13:02 6.0 0.1 66 997.0 14.5 W 18.3 0.0 5.4
13:03 6.5 0.8 67 996.9 15.9 SW 18.3 0.0 5.4
13:04 6.6 0.7 66 996.7 15.9 W 16.8 0.0 5.4
13:05 6.7 0.8 66 996.9 21.3 W 21.3 0.0 5.4
13:06 6.7 0.8 66 996.8 13.6 W 21.3 0.0 5.4
13:07 6.8 0.9 66 997.0 18.3 SW 21.3 0.0 5.4
13:09 6.7 0.8 66 996.8 16.8 W 21.3 0.0 5.4
13:10 6.7 0.6 65 996.8 28.2 W 28.2 0.0 5.4
13:11 6.7 0.6 65 996.8 19.0 NW 28.2 0.0 5.4
13:12 6.6 0.5 65 997.1 13.6 W 28.2 0.0 5.4
13:13 6.6 0.5 65 997.2 17.4 W 28.2 0.0 5.4
13:14 6.6 0.3 64 997.1 19.7 W 28.2 0.0 5.4
13:15 6.5 0.2 64 997.1 22.8 W 28.2 0.0 5.4
13:16 6.4 -0.1 63 997.0 13.6 W 28.2 0.0 5.4
13:17 6.3 -0.2 63 996.9 18.3 NW 28.2 0.0 5.4
13:18 6.3 -0.2 63 997.1 19.0 W 28.2 0.0 5.4
13:19 6.2 -0.3 63 997.0 22.1 W 28.2 0.0 5.4
13:20 6.2 -0.3 63 997.1 19.0 W 28.2 0.0 5.4
13:21 6.4 0.1 64 997.1 21.3 W 28.2 0.0 5.4
13:22 6.5 0.2 64 996.8 20.6 SW 22.8 0.0 5.4
13:23 6.6 0.5 65 997.1 20.6 W 22.8 0.0 5.4
13:24 6.6 0.5 65 996.8 23.5 SW 23.5 0.0 5.4
13:25 6.6 0.5 65 996.9 26.6 W 26.6 0.0 5.4
13:26 6.6 0.3 64 997.1 19.7 W 26.6 0.0 5.4
13:27 6.6 0.3 64 997.0 25.9 W 26.6 0.0 5.4
13:28 6.6 0.1 63 997.0 25.1 N 26.6 0.0 5.4
13:29 6.6 0.1 63 997.0 27.3 W 27.3 0.0 5.4
13:31 6.6 -0.2 62 997.0 20.6 W 27.3 0.0 5.4
13:32 6.6 -0.2 62 997.1 28.2 NW 28.2 0.0 5.4
13:33 6.6 -0.2 62 996.9 28.2 NW 28.2 0.0 5.4
13:34 6.6 -0.2 62 996.9 15.2 W 28.2 0.0 5.4
13:35 6.6 -0.2 62 996.9 15.2 W 28.2 0.0 5.4
13:36 6.5 -0.3 62 997.0 19.0 W 28.2 0.0 5.4
13:37 6.6 -0.2 62 997.0 28.2 SE 28.2 0.0 5.4
13:38 6.6 -0.2 62 996.9 22.1 NW 28.2 0.0 5.4
13:39 6.5 0.0 63 997.3 22.1 NW 28.2 0.0 5.4
13:40 6.5 0.0 63 997.0 20.6 NW 28.2 0.0 5.4
13:41 6.3 -0.2 63 997.0 22.1 SW 28.2 0.0 5.4
13:42 6.2 -0.3 63 997.0 21.3 W 28.2 0.0 5.4
13:43 6.0 -0.5 63 997.1 19.7 W 28.2 0.0 5.4
13:44 6.0 -0.5 63 997.0 23.5 W 28.2 0.0 5.4
13:46 5.8 -0.5 64 997.0 8.3 SW 28.2 0.0 5.4
13:47 5.6 -0.7 64 996.9 17.4 W 28.2 0.0 5.4
13:48 5.6 -0.5 65 997.0 16.8 NW 23.5 0.0 5.4
13:49 5.6 -0.5 65 996.9 16.8 W 23.5 0.0 5.4
13:50 5.6 -0.5 65 997.0 11.4 NW 23.5 0.0 5.4
13:51 5.5 -0.6 65 997.1 11.4 W 23.5 0.0 5.4
13:52 5.5 -0.3 66 997.0 9.8 SW 23.5 0.0 5.4
13:53 5.4 -0.4 66 997.0 15.9 NW 23.5 0.0 5.4
13:54 5.4 -0.2 67 996.9 13.0 NW 23.5 0.0 5.4
13:55 5.4 -0.2 67 996.9 13.0 SW 23.5 0.0 5.4
13:56 5.4 -0.2 67 996.9 15.2 W 17.4 0.0 5.4
13:57 5.4 0.0 68 996.7 18.3 SW 18.3 0.0 5.4
13:58 5.4 0.0 68 997.0 20.6 W 20.6 0.0 5.4
13:59 5.4 0.0 68 996.9 18.3 NW 20.6 0.0 5.4
14:00 5.4 0.0 68 997.1 18.3 NW 20.6 0.0 5.4
14:02 5.4 0.0 68 997.1 18.3 NW 20.6 0.0 5.4
14:03 5.4 0.0 68 996.9 18.3 NW 20.6 0.0 5.4
14:04 5.4 0.0 68 996.8 18.3 NW 20.6 0.0 5.4
14:05 5.4 0.0 68 997.0 18.3 NW 20.6 0.0 5.4
14:06 5.6 0.4 69 997.1 21.3 W 21.3 0.0 5.4
14:07 5.7 0.5 69 997.1 18.3 SW 21.3 0.0 5.4
14:08 5.9 0.7 69 997.1 21.3 W 21.3 0.0 5.4
14:09 6.0 0.7 69 997.0 15.9 W 21.3 0.0 5.4
14:10 6.1 0.8 69 997.0 18.3 NW 21.3 0.0 5.4
14:11 6.2 0.9 69 996.9 15.2 W 21.3 0.0 5.4
14:12 6.3 1.0 69 997.1 15.2 W 21.3 0.0 5.4
14:13 6.4 0.9 68 997.1 21.3 NW 21.3 0.0 5.4
14:14 6.4 0.9 68 997.0 15.2 SW 21.3 0.0 5.4
14:15 6.4 0.7 67 997.1 14.5 SW 21.3 0.0 5.4
14:16 6.4 0.7 67 997.0 13.6 SW 21.3 0.0 5.4
14:17 6.3 0.6 67 997.3 17.4 N 21.3 0.0 5.4
14:19 6.2 0.5 67 997.1 16.8 NW 22.8 0.0 5.4
14:20 6.1 0.6 68 997.1 15.9 W 22.8 0.0 5.4
14:21 6.0 0.5 68 997.2 11.4 S 22.8 0.0 5.4
14:22 6.0 0.7 69 997.2 19.7 NW 22.8 0.0 5.4
14:23 6.0 0.9 70 997.1 20.6 WSW 22.8 0.0 5.4
14:24 6.0 0.9 70 997.1 20.6 WSW 22.8 0.0 5.4
14:25 6.2 1.1 70 997.2 21.3 S 22.8 0.0 5.4
14:26 6.3 1.2 70 997.0 13.6 W 22.8 0.0 5.4
14:27 6.3 1.2 70 997.0 31.1 N 31.1 0.0 5.4
14:28 6.3 1.2 70 997.3 14.5 W 31.1 0.0 5.4
14:29 6.3 1.0 69 997.2 15.2 WNW 31.1 0.0 5.4
14:30 6.3 1.0 69 997.1 15.2 W 31.1 0.0 5.4
14:31 6.3 0.8 68 997.0 10.7 SW 31.1 0.0 5.4
14:32 6.3 0.6 67 997.2 9.8 NW 31.1 0.0 5.4
14:33 6.2 0.3 66 997.0 19.7 W 31.1 0.0 5.4
14:34 6.2 0.3 66 997.0 13.6 N 31.1 0.0 5.4
14:36 6.1 0.0 65 997.3 16.8 NW 31.1 0.0 5.4
14:37 6.0 -0.1 65 997.4 15.9 W 19.7 0.0 5.4
14:38 6.0 -0.1 65 997.2 15.9 NW 19.7 0.0 5.4
14:39 6.0 -0.1 65 997.2 18.3 W 19.7 0.0 5.4
14:40 5.9 -0.2 65 997.3 11.4 N 19.7 0.0 5.4
14:41 5.9 -0.2 65 997.3 13.0 W 19.7 0.0 5.4
14:42 5.9 -0.2 65 997.2 15.9 NW 19.7 0.0 5.4
14:43 5.8 -0.3 65 997.1 17.4 W 19.7 0.0 5.4
14:44 5.8 -0.3 65 997.2 15.2 NW 19.0 0.0 5.4
14:45 5.8 -0.3 65 997.2 15.2 SW 19.0 0.0 5.4
14:46 5.7 -0.4 65 997.5 12.1 NW 19.0 0.0 5.4
14:47 5.7 -0.4 65 997.3 13.6 NW 18.3 0.0 5.4
14:48 5.7 -0.4 65 997.2 15.2 SW 18.3 0.0 5.4
14:49 5.7 -0.4 65 997.4 18.3 W 18.3 0.0 5.4
14:50 5.7 -0.4 65 997.4 15.9 W 18.3 0.0 5.4
14:52 5.6 -0.5 65 997.5 17.4 W 23.5 0.0 5.4
14:53 5.6 -0.5 65 997.5 22.1 WNW 23.5 0.0 5.4
14:54 5.6 -0.5 65 997.4 15.9 W 23.5 0.0 5.4
14:55 5.6 -0.2 66 997.5 13.6 SW 23.5 0.0 5.4
14:56 5.6 -0.2 66 997.3 13.6 SW 23.5 0.0 5.4
14:57 5.5 -0.3 66 997.4 13.0 SW 23.5 0.0 5.4
14:58 5.5 -0.1 67 997.4 15.2 NW 23.5 0.0 5.4
14:59 5.5 -0.1 67 997.3 15.2 SW 23.5 0.0 5.4
15:00 5.4 -0.2 67 997.5 15.2 W 23.5 0.0 5.4
15:01 5.4 -0.2 67 997.6 15.2 W 23.5 0.0 5.4
15:02 5.4 -0.2 67 997.4 15.2 W 22.1 0.0 5.4
15:03 5.4 -0.2 67 997.3 15.2 W 22.1 0.0 5.4
15:04 5.4 -0.2 67 997.5 15.2 W 21.3 0.0 5.4
15:05 5.4 -0.2 67 997.7 15.2 W 15.2 0.0 5.4
15:06 5.4 -0.2 67 997.9 27.3 W 27.3 0.0 5.4
15:08 5.4 0.0 68 997.7 13.6 WNW 27.3 0.0 5.4
15:09 5.4 0.0 68 997.6 15.9 W 27.3 0.0 5.4
15:10 5.4 0.2 69 997.7 15.9 NW 27.3 0.0 5.4
15:11 5.4 0.2 69 997.7 15.9 N 27.3 0.0 5.4
15:12 5.4 0.2 69 997.7 15.9 N 27.3 0.0 5.4
15:13 5.6 0.6 70 997.6 15.9 NW 27.3 0.0 5.4
15:14 5.6 0.6 70 997.8 15.9 N 27.3 0.0 5.4
15:15 5.7 0.7 70 997.5 13.6 N 27.3 0.0 5.4
15:16 5.7 0.7 70 997.6 13.6 N 20.6 0.0 5.4
15:17 5.8 0.8 70 997.9 9.8 SW 20.6 0.0 5.4
15:18 5.8 0.8 70 997.7 16.8 NW 16.8 0.0 5.4
15:19 5.8 0.8 70 997.7 19.0 NW 19.0 0.0 5.4
15:20 5.8 0.8 70 997.9 17.4 NW 19.0 0.0 5.4
15:21 5.7 0.5 69 997.9 14.5 NW 19.0 0.0 5.4
15:22 5.6 0.4 69 997.8 14.5 SW 19.0 0.0 5.4
15:23 5.5 0.1 68 998.1 17.4 W 19.0 0.0 5.4
15:24 5.4 0.0 68 998.0 15.2 NW 19.0 0.0 5.4
15:25 5.3 -0.1 68 997.8 17.4 W 19.0 0.0 5.4
15:27 5.1 -0.3 68 998.0 17.4 SW 19.0 0.0 5.4
15:28 5.1 -0.3 68 998.0 14.5 NW 19.0 0.0 5.4
15:29 5.0 -0.4 68 998.0 17.4 W 17.4 0.0 5.4
15:30 5.0 -0.4 68 998.1 18.3 NW 18.3 0.0 5.4
15:31 4.9 -0.7 67 998.0 18.3 NW 18.3 0.0 5.4
15:32 4.9 -0.7 67 998.0 18.3 NW 18.3 0.0 5.4
15:33 4.9 -0.7 67 997.9 14.5 W 18.3 0.0 5.4
15:34 4.8 -0.8 67 998.0 9.8 W 18.3 0.0 5.4
15:35 4.8 -1.0 66 997.9 11.4 N 18.3 0.0 5.4
15:36 4.8 -1.0 66 998.0 11.4 NW 18.3 0.0 5.4
15:37 4.8 -1.0 66 998.0 13.6 NW 18.3 0.0 5.4
15:38 4.8 -1.2 65 998.0 14.5 W 18.3 0.0 5.4
15:39 4.8 -1.2 65 998.3 12.1 NW 18.3 0.0 5.5
15:40 4.8 -1.2 65 998.1 10.7 SW 18.3 0.8 5.5
15:42 4.7 -1.3 65 997.9 19.7 NW 19.7 0.8 5.5
15:43 4.7 -1.3 65 998.0 16.8 SE 19.7 0.8 5.5
15:44 4.8 -1.2 65 998.1 19.0 NW 19.7 0.8 5.5
15:45 4.8 -1.2 65 998.0 18.3 NW 19.7 0.0 5.5
15:46 4.8 -1.2 65 998.0 18.3 NW 19.7 0.0 5.5
15:47 4.8 -1.2 65 998.4 13.6 W 19.7 0.0 5.5
15:48 4.7 -1.3 65 998.2 13.6 NW 19.7 0.0 5.5
15:49 4.7 -1.3 65 998.2 15.9 W 19.7 0.0 5.5
15:50 4.7 -1.3 65 998.1 14.5 NW 19.7 0.0 5.5
15:51 4.7 -1.3 65 998.3 14.5 NW 19.7 0.0 5.5
15:52 4.7 -1.3 65 998.1 21.3 W 21.3 0.8 5.5
15:53 4.7 -1.5 64 998.3 15.2 W 21.3 0.8 5.5
15:54 4.7 -1.5 64 998.3 15.9 NW 21.3 0.8 5.5
15:56 4.7 -1.5 64 998.1 16.8 SW 21.3 0.8 5.5
15:57 4.7 -1.5 64 998.2 15.9 WNW 21.3 0.0 5.5
15:58 4.7 -1.5 64 998.0 17.4 NW 21.3 0.0 5.5
15:59 4.7 -1.5 64 998.2 12.1 NW 21.3 0.0 5.5
16:00 4.7 -1.5 64 998.2 12.1 NW 21.3 0.0 5.5
16:01 4.7 -1.5 64 998.5 12.1 NW 21.3 0.0 5.5
16:02 4.7 -1.5 64 998.3 12.1 NW 21.3 0.0 5.5
16:03 4.7 -1.5 64 998.2 12.1 W 17.4 0.0 5.5
16:04 4.7 -1.5 64 998.4 18.3 NW 18.3 0.0 5.5
16:05 4.7 -1.5 64 998.3 11.4 W 18.3 0.0 5.5
16:06 4.8 -1.4 64 998.2 12.1 W 18.3 0.0 5.5
16:07 4.8 -1.4 64 998.4 13.6 NW 18.3 0.0 5.5
16:08 4.8 -1.4 64 998.5 10.7 NW 18.3 0.0 5.5
16:10 4.8 -1.2 65 998.3 13.0 W 18.3 0.0 5.5
16:11 4.9 -1.1 65 998.4 18.3 W 18.3 0.0 5.5
16:12 4.9 -1.1 65 998.5 14.5 NW 18.3 0.0 5.5
16:13 4.9 -1.3 64 998.4 17.4 NW 18.3 0.0 5.5
16:14 4.9 -1.3 64 998.2 18.3 SW 18.3 0.0 5.5
16:15 4.9 -1.3 64 998.4 16.8 NW 18.3 0.0 5.5
16:16 4.9 -1.3 64 998.4 16.8 W 18.3 0.0 5.5
16:17 4.9 -1.3 64 998.5 16.8 NW 18.3 0.0 5.5
16:18 4.9 -1.3 64 998.4 9.8 N 18.3 0.0 5.5
16:19 4.9 -1.3 64 998.4 18.3 NW 18.3 0.8 5.6
16:20 4.9 -1.3 64 998.5 13.0 NW 18.3 0.8 5.6
16:21 4.9 -1.3 64 998.4 13.0 NW 18.3 0.8 5.6
16:22 4.8 -1.4 64 998.5 15.2 W 18.3 0.8 5.6
16:24 4.8 -1.4 64 998.4 16.8 SW 18.3 0.0 5.6
16:25 4.8 -1.4 64 998.6 16.8 NW 18.3 0.0 5.6
16:26 4.8 -1.4 64 998.5 15.2 NW 18.3 0.0 5.6
16:27 4.8 -1.6 63 998.7 14.5 SW 18.3 0.0 5.6
16:28 4.8 -1.6 63 998.6 13.6 W 18.3 0.0 5.6
16:29 4.8 -1.6 63 998.6 13.6 W 18.3 0.0 5.6
16:30 4.7 -1.7 63 998.4 15.9 N 16.8 0.0 5.6
16:31 4.7 -1.7 63 998.5 15.9 NW 16.8 0.0 5.6
16:32 4.7 -1.7 63 998.7 15.9 NW 16.8 0.0 5.6
16:33 4.7 -1.7 63 998.5 17.4 N 17.4 0.0 5.6
16:34 4.7 -1.7 63 998.6 15.9 WSW 17.4 0.8 5.7
16:35 4.7 -1.7 63 998.5 15.9 W 17.4 0.8 5.7
16:36 4.7 -1.7 63 998.6 10.7 NW 17.4 0.8 5.7
16:37 4.7 -1.7 63 998.7 13.0 SSW 17.4 0.8 5.7
16:39 4.7 -1.7 63 998.7 13.6 NW 17.4 0.0 5.7
16:40 4.7 -1.5 64 998.6 17.4 NW 17.4 0.0 5.7
16:41 4.7 -1.5 64 998.7 17.4 N 17.4 0.0 5.7
16:42 4.6 -1.6 64 998.7 17.4 NW 17.4 0.0 5.7
16:43 4.6 -1.6 64 998.9 17.4 NW 17.4 0.0 5.7
16:44 4.6 -1.6 64 998.8 13.6 NW 17.4 0.0 5.7
16:45 4.6 -1.6 64 998.8 15.2 NW 17.4 0.0 5.7
16:46 4.6 -1.6 64 998.8 20.6 NW 20.6 0.0 5.7
16:47 4.6 -1.6 64 998.8 16.8 W 20.6 0.0 5.7
16:48 4.6 -1.6 64 999.0 16.8 W 20.6 0.0 5.7
16:49 4.6 -1.6 64 998.7 11.4 NW 20.6 0.0 5.7
16:50 4.6 -1.6 64 998.9 13.0 NW 20.6 0.0 5.7
16:51 4.5 -1.7 64 998.8 15.9 NW 20.6 0.0 5.7
16:53 4.5 -1.9 63 998.7 16.8 NW 20.6 0.0 5.7
16:54 4.5 -1.9 63 998.9 15.9 W 20.6 0.0 5.7
16:55 4.5 -1.9 63 998.9 18.3 NW 20.6 0.0 5.7
16:56 4.5 -1.9 63 998.8 16.8 N 18.3 0.0 5.7
16:57 4.5 -1.9 63 998.7 19.7 N 19.7 0.0 5.7
16:58 4.5 -1.9 63 998.9 19.7 W 19.7 0.0 5.7
16:59 4.5 -1.9 63 998.8 17.4 WNW 19.7 0.0 5.7
17:00 4.5 -1.9 63 998.7 17.4 N 19.7 0.0 5.7
17:01 4.5 -1.9 63 999.1 17.4 N 19.7 0.0 5.7
17:02 4.5 -1.9 63 998.9 17.4 N 19.7 0.0 5.7
17:03 4.5 -1.9 63 998.8 17.4 N 19.7 0.0 5.7
17:04 4.5 -1.9 63 999.0 17.4 N 19.7 0.0 5.7
17:05 4.5 -1.9 63 998.9 17.4 N 19.7 0.0 5.7
17:07 4.4 -2.2 62 999.1 15.2 NW 19.7 0.0 5.7
17:08 4.4 -2.2 62 999.0 13.6 NW 17.4 0.0 5.7
17:09 4.4 -2.2 62 998.8 15.9 NW 17.4 0.0 5.7
17:10 4.4 -2.2 62 998.8 13.6 NW 17.4 0.0 5.7
17:11 4.4 -2.2 62 999.0 10.7 NW 17.4 0.0 5.7
17:12 4.4 -2.2 62 999.1 10.7 NW 17.4 0.0 5.7
17:13 4.3 -2.3 62 999.0 15.9 NW 18.3 0.0 5.7
17:14 4.3 -2.3 62 999.1 19.0 NW 19.0 0.8 5.7
17:15 4.3 -2.6 61 999.0 15.9 W 19.0 0.8 5.7
17:16 4.3 -2.6 61 998.9 13.0 SW 19.0 0.8 5.7
17:17 4.3 -2.6 61 999.0 13.0 SW 19.0 0.8 5.7
17:18 4.3 -2.6 61 999.0 13.0 SW 19.0 0.8 5.7
17:19 4.3 -2.6 61 999.0 13.0 W 19.0 0.0 5.7
17:20 4.3 -2.6 61 998.9 13.0 W 19.0 0.0 5.7
17:21 4.3 -2.6 61 999.2 14.5 W 19.0 0.0 5.7
17:22 4.3 -2.6 61 999.0 10.7 N 19.0 0.0 5.7
17:23 4.3 -2.6 61 999.1 10.7 N 19.0 0.0 5.7
17:24 4.3 -2.6 61 999.1 15.9 W 19.0 0.0 5.7
17:25 4.3 -2.6 61 999.1 19.0 NW 19.0 0.0 5.7
17:26 4.3 -2.6 61 999.0 15.9 NW 19.0 0.0 5.7
17:27 4.3 -2.6 61 999.0 15.2 N 19.0 0.0 5.7
17:29 4.3 -2.6 61 999.1 19.0 NW 19.0 0.0 5.7
17:30 4.3 -2.6 61 999.2 19.0 NW 19.0 0.0 5.7
17:31 4.3 -2.6 61 999.0 13.6 NW 19.0 0.0 5.7
17:32 4.3 -2.6 61 999.2 13.6 NW 19.0 0.0 5.7
17:33 4.4 -2.5 61 999.3 9.8 NW 19.0 0.0 5.7
17:34 4.4 -2.5 61 999.4 9.8 NW 19.0 0.0 5.7
17:35 4.4 -2.5 61 999.3 9.8 NW 19.0 0.0 5.7
17:36 4.4 -2.5 61 999.5 14.5 W 19.0 0.0 5.7
17:37 4.4 -2.5 61 999.2 13.0 W 19.0 0.0 5.7
17:38 4.4 -2.5 61 999.4 12.1 NW 19.0 0.0 5.7
17:39 4.3 -2.6 61 999.5 17.4 W 19.0 0.0 5.7
17:40 4.3 -2.6 61 999.2 17.4 W 19.0 0.0 5.7
17:41 4.3 -2.6 61 999.4 12.1 NW 17.4 0.0 5.7
17:43 4.3 -2.6 61 999.4 9.2 W 17.4 0.0 5.7
17:44 4.3 -2.6 61 999.5 15.2 WNW 17.4 0.0 5.7
17:45 4.3 -2.6 61 999.4 12.1 W 17.4 0.0 5.7
17:46 4.3 -2.6 61 999.4 20.6 NW 20.6 0.0 5.7
17:47 4.3 -2.6 61 999.7 20.6 NW 20.6 0.0 5.7
17:48 4.3 -2.6 61 999.4 20.6 NW 20.6 0.0 5.7
17:49 4.3 -2.6 61 999.4 18.3 NW 20.6 0.0 5.7
17:50 4.3 -2.6 61 999.5 19.7 NW 21.3 0.0 5.7
17:51 4.3 -2.6 61 999.4 11.4 NW 21.3 0.0 5.7
17:52 4.3 -2.6 61 999.5 13.6 N 21.3 0.0 5.7
17:53 4.3 -2.6 61 999.6 12.1 SW 21.3 0.0 5.7
17:54 4.3 -2.6 61 999.4 11.4 W 21.3 0.0 5.7
17:55 4.3 -2.6 61 999.4 19.7 N 21.3 0.0 5.8
17:57 4.3 -2.6 61 999.2 19.0 W 21.3 0.8 5.8
17:58 4.3 -2.6 61 999.4 17.4 NW 21.3 0.8 5.8
17:59 4.3 -2.6 61 999.6 14.5 N 19.7 0.8 5.8
18:00 4.3 -2.6 61 999.5 14.5 N 19.7 0.8 5.8
18:01 4.3 -2.6 61 999.4 14.5 N 19.7 0.0 5.8
18:02 4.3 -2.6 61 999.5 14.5 N 19.7 0.0 5.8
18:03 4.3 -2.6 61 999.4 14.5 N 19.7 0.0 5.8
18:04 4.3 -2.6 61 999.4 14.5 N 19.7 0.0 5.8
18:05 4.4 -2.5 61 999.4 13.6 NW 19.7 0.0 5.8
18:06 4.4 -2.5 61 999.5 14.5 NE 19.0 0.0 5.8
18:07 4.4 -2.5 61 999.4 14.5 W 19.0 0.0 5.8
18:08 4.4 -2.5 61 999.6 11.4 W 17.4 0.0 5.8
18:09 4.4 -2.5 61 999.5 14.5 NW 14.5 0.0 5.8
18:10 4.4 -2.5 61 999.6 14.5 NW 14.5 0.0 5.8
18:11 4.4 -2.5 61 999.3 14.5 NW 14.5 0.0 5.8
18:12 4.4 -2.5 61 999.5 14.5 NW 14.5 0.0 5.8
18:13 4.4 -2.5 61 999.5 14.5 NW 14.5 0.0 5.8
18:14 4.4 -2.2 62 999.5 15.2 NW 15.2 0.0 5.8
18:15 4.4 -2.2 62 999.5 15.2 NW 15.2 0.0 5.8
18:17 4.5 -2.1 62 999.7 14.5 NW 15.2 0.0 5.8
18:18 4.5 -2.1 62 999.6 14.5 NW 15.2 0.0 5.8
18:19 4.5 -2.1 62 999.7 14.5 N 15.2 0.0 5.8
18:20 4.5 -2.1 62 999.6 10.7 SW 15.2 0.0 5.8
18:21 4.5 -2.1 62 999.6 11.4 N 15.2 0.0 5.8
18:22 4.5 -2.1 62 999.4 13.6 W 15.2 0.0 5.8
18:23 4.4 -2.2 62 999.7 12.1 NW 15.2 0.0 5.8
18:24 4.4 -2.2 62 999.6 12.1 NW 15.2 0.0 5.8
18:25 4.4 -2.2 62 999.5 20.6 NW 20.6 0.0 5.8
18:26 4.4 -2.2 62 999.7 20.6 W 20.6 0.0 5.8
18:27 4.4 -2.2 62 999.8 20.6 W 20.6 0.0 5.8
18:28 4.4 -2.2 62 999.8 15.9 NE 20.6 0.0 5.8
18:29 4.4 -2.2 62 999.7 13.6 W 20.6 0.0 5.8
18:30 4.4 -2.2 62 999.7 15.9 SW 20.6 0.0 5.8
18:31 4.4 -2.2 62 999.6 20.6 W 20.6 0.0 5.8
18:32 4.4 -2.2 62 999.8 20.6 W 20.6 0.0 5.8
18:33 4.4 -2.2 62 999.8 16.8 NW 20.6 0.0 5.8
18:34 4.4 -2.2 62 1000.0 16.8 W 20.6 0.0 5.8
18:35 4.4 -2.2 62 999.8 16.8 NW 20.6 0.0 5.8
18:36 4.4 -2.2 62 999.8 13.0 NW 20.6 0.0 5.8
18:37 4.4 -2.2 62 999.8 13.0 NW 20.6 0.0 5.8
18:39 4.4 -2.2 62 999.9 11.4 NW 20.6 0.0 5.8
18:40 4.4 -2.0 63 1000.0 17.4 NW 20.6 0.0 5.8
18:41 4.4 -2.0 63 1000.2 17.4 NW 20.6 0.0 5.8
18:42 4.4 -2.0 63 1000.0 17.4 NW 20.6 0.0 5.8
18:43 4.4 -2.0 63 1000.2 15.2 W 17.4 0.0 5.8
18:44 4.4 -2.0 63 1000.2 15.2 W 17.4 0.0 5.8
18:45 4.4 -2.2 62 1000.0 13.0 W 17.4 0.0 5.8
18:46 4.4 -2.2 62 1000.1 15.2 NW 17.4 0.0 5.8
18:47 4.4 -2.2 62 1000.1 15.2 NW 17.4 0.0 5.8
18:48 4.4 -2.2 62 999.9 15.9 N 17.4 0.0 5.8
18:49 4.4 -2.2 62 1000.0 17.4 N 17.4 0.0 5.8
18:50 4.4 -2.5 61 1000.0 20.6 NW 20.6 0.0 5.8
18:51 4.4 -2.5 61 1000.1 15.2 NW 20.6 0.0 5.8
18:52 4.4 -2.7 60 1000.1 25.1 W 25.1 0.0 5.9
18:54 4.4 -2.7 60 1000.1 13.0 NW 25.1 0.8 5.9
18:55 4.4 -2.7 60 999.9 18.3 NW 25.1 0.8 5.9
18:56 4.4 -2.7 60 999.9 15.2 W 25.1 0.8 5.9
18:57 4.4 -2.7 60 1000.2 18.3 N 25.1 0.8 5.9
18:58 4.4 -2.9 59 1000.1 16.8 N 25.1 0.0 5.9
18:59 4.4 -2.9 59 1000.1 16.8 N 25.1 0.0 5.9
19:00 4.4 -2.9 59 1000.2 15.9 W 25.1 0.0 5.9
19:01 4.4 -2.9 59 1000.1 15.9 W 25.1 0.0 5.9
19:02 4.4 -2.9 59 1000.1 15.9 W 25.1 0.0 5.9
19:03 4.4 -2.9 59 1000.2 15.9 W 21.3 0.0 5.9
19:04 4.4 -2.9 59 1000.1 15.9 W 19.0 0.0 5.9
19:05 4.4 -2.9 59 1000.3 15.9 W 19.0 0.0 5.9
19:06 4.4 -2.9 59 1000.0 15.9 W 18.3 0.0 5.9
19:08 4.4 -2.7 60 1000.2 15.9 N 16.8 0.0 5.9
19:09 4.4 -2.7 60 1000.1 16.8 W 16.8 0.0 5.9
19:10 4.4 -2.7 60 1000.2 16.8 W 16.8 0.0 5.9
19:11 4.4 -2.7 60 1000.3 19.7 NW 19.7 0.0 5.9
19:12 4.4 -2.7 60 1000.3 19.7 NW 19.7 0.0 5.9
19:13 4.4 -2.7 60 1000.4 13.6 W 19.7 0.0 5.9
19:14 4.4 -2.7 60 1000.1 15.9 W 19.7 0.0 5.9
19:15 4.4 -2.7 60 1000.1 13.6 NW 19.7 0.0 5.9
19:16 4.4 -2.7 60 1000.4 17.4 N 19.7 0.0 5.9
19:17 4.4 -2.7 60 1000.5 17.4 W 19.7 0.0 5.9
19:18 4.4 -2.7 60 1000.2 14.5 NW 19.7 0.0 5.9
19:19 4.4 -2.7 60 1000.5 15.2 WNW 19.7 0.0 5.9
19:20 4.4 -2.7 60 1000.5 15.2 WNW 19.7 0.0 5.9
19:21 4.5 -2.6 60 1000.3 15.2 S 19.7 0.0 5.9
19:22 4.5 -2.6 60 1000.4 13.6 W 19.7 0.0 5.9
19:23 4.5 -2.6 60 1000.1 14.5 SW 17.4 0.0 5.9
19:24 4.5 -2.4 61 1000.6 17.4 NW 17.4 0.0 5.9
19:25 4.5 -2.4 61 1000.5 16.8 NW 17.4 0.0 5.9
19:26 4.5 -2.4 61 1000.5 16.8 W 17.4 0.0 5.9
19:27 4.5 -2.4 61 1000.5 15.9 WNW 17.4 0.0 5.9
19:28 4.5 -2.4 61 1000.4 14.5 NE 17.4 0.0 5.9
19:29 4.5 -2.4 61 1000.5 13.0 WNW 17.4 0.0 5.9
19:31 4.5 -2.4 61 1000.5 15.9 NW 17.4 0.0 5.9
19:32 4.6 -2.3 61 1000.6 9.8 SW 17.4 0.0 5.9
19:33 4.6 -2.3 61 1000.6 16.8 E 17.4 0.0 5.9
19:34 4.6 -2.3 61 1000.7 15.9 NW 16.8 0.0 5.9
19:35 4.6 -2.3 61 1000.5 13.6 NW 16.8 0.0 5.9
19:36 4.6 -2.3 61 1000.5 16.8 NW 16.8 0.0 5.9
19:37 4.6 -2.3 61 1000.7 13.0 N 16.8 0.0 5.9
19:38 4.6 -2.3 61 1000.4 9.8 N 16.8 0.0 5.9
19:39 4.6 -2.3 61 1000.4 9.8 N 16.8 0.0 5.9
19:40 4.6 -2.3 61 1000.2 13.0 N 16.8 0.0 5.9
19:41 4.6 -2.3 61 1000.4 9.8 N 16.8 0.0 5.9
19:42 4.6 -2.3 61 1000.4 11.4 NW 16.8 0.0 5.9
19:43 4.6 -2.3 61 1000.2 11.4 NW 16.8 0.0 5.9
19:44 4.6 -2.3 61 1000.4 13.6 NW 16.8 0.0 5.9
19:45 4.5 -2.1 62 1000.4 11.4 NW 16.8 0.0 5.9
19:46 4.5 -2.1 62 1000.5 13.6 NW 15.2 0.8 5.9
19:47 4.5 -2.1 62 1000.5 12.1 N 13.6 0.8 5.9
19:49 4.5 -2.1 62 1000.3 13.6 WNW 13.6 0.8 5.9
19:50 4.5 -2.1 62 1000.6 15.9 N 15.9 0.8 5.9
19:51 4.5 -2.1 62 1000.7 15.2 N 15.9 0.0 5.9
19:52 4.5 -2.1 62 1000.7 10.7 NW 15.9 0.0 5.9
19:53 4.5 -2.1 62 1000.7 9.8 W 15.9 0.0 5.9
19:54 4.5 -2.1 62 1000.7 14.5 W 15.9 0.0 5.9
19:55 4.5 -2.1 62 1000.9 14.5 N 15.9 0.0 5.9
19:56 4.5 -2.1 62 1000.7 13.0 SE 15.9 0.0 5.9
19:57 4.5 -2.1 62 1000.9 15.9 NE 15.9 0.0 5.9
19:58 4.5 -2.1 62 1000.7 19.0 NW 19.0 0.0 5.9
19:59 4.4 -2.0 63 1000.7 12.1 NW 19.0 0.0 5.9
20:00 4.4 -2.0 63 1000.7 12.1 NW 19.0 0.0 5.9
20:01 4.4 -2.0 63 1000.8 9.2 NW 19.0 0.0 5.9
20:02 4.4 -2.0 63 1000.9 9.2 NW 19.0 0.0 5.9
20:03 4.3 -1.9 64 1000.8 13.6 NW 19.0 0.0 5.9
20:05 4.2 -2.0 64 1000.7 8.3 W 19.0 0.0 5.9
20:06 4.2 -2.0 64 1000.7 10.7 NW 19.0 0.0 5.9
20:07 4.2 -1.8 65 1000.9 10.7 NW 19.0 0.0 5.9
20:08 4.2 -1.8 65 1000.6 8.3 NW 13.6 0.0 5.9
20:09 4.2 -1.8 65 1000.6 8.3 NW 13.6 0.0 5.9
20:10 4.1 -1.9 65 1000.8 8.3 NW 13.6 0.0 5.9
20:11 4.1 -1.9 65 1000.6 9.2 W 13.6 0.0 5.9
20:12 4.1 -1.9 65 1000.8 10.7 NW 13.6 0.0 5.9
20:13 4.1 -1.9 65 1000.6 10.7 NW 13.6 0.0 5.9
20:14 4.1 -1.7 66 1000.7 9.2 NW 10.7 0.0 5.9
20:15 4.1 -1.7 66 1001.0 8.3 W 10.7 0.0 5.9
20:16 4.1 -1.7 66 1001.0 9.2 NW 10.7 0.0 5.9
20:17 4.1 -1.7 66 1001.2 11.4 NW 11.4 0.0 5.9
20:19 4.1 -1.7 66 1001.3 13.0 W 13.6 0.0 5.9
20:20 4.1 -1.7 66 1001.2 10.7 NW 13.6 0.0 5.9
20:21 4.1 -1.5 67 1001.2 11.4 W 13.6 0.0 5.9
20:22 4.1 -1.5 67 1001.0 13.0 N 13.6 0.0 5.9
20:23 4.0 -1.6 67 1001.1 14.5 W 14.5 0.0 5.9
20:24 4.0 -1.6 67 1001.1 14.5 W 14.5 0.0 5.9
20:25 4.0 -1.6 67 1001.2 9.8 W 14.5 0.0 5.9
20:26 4.0 -1.6 67 1001.4 9.8 W 14.5 0.0 5.9
20:27 4.0 -1.6 67 1001.2 13.0 NW 14.5 0.0 5.9
20:28 4.0 -1.6 67 1001.2 12.1 W 14.5 0.0 5.9
20:29 4.0 -1.6 67 1001.2 10.7 NW 14.5 0.0 5.9
20:30 3.9 -1.5 68 1001.3 11.4 NW 14.5 0.0 5.9
20:31 3.9 -1.5 68 1001.3 9.2 NW 14.5 0.0 5.9
20:32 3.9 -1.5 68 1001.3 16.8 W 16.8 0.0 5.9
20:33 3.9 -1.5 68 1001.3 15.2 N 16.8 0.0 5.9
20:34 3.9 -1.5 68 1001.4 13.0 WNW 16.8 0.0 5.9
20:35 3.8 -1.6 68 1001.4 13.6 W 16.8 0.0 5.9
20:37 3.8 -1.6 68 1001.2 15.2 NW 16.8 0.0 5.9
20:38 3.8 -1.6 68 1001.3 12.1 N 16.8 0.0 5.9
20:39 3.8 -1.6 68 1001.3 15.2 NW 16.8 0.0 5.9
20:40 3.7 -1.7 68 1001.3 13.0 NW 16.8 0.0 5.9
20:41 3.7 -1.7 68 1001.3 12.1 NW 16.8 0.0 5.9
20:42 3.7 -1.7 68 1001.4 12.1 NW 16.8 0.0 5.9
20:43 3.7 -1.7 68 1001.2 9.8 NW 15.2 0.0 5.9
20:44 3.7 -1.7 68 1001.2 9.8 N 15.2 0.0 5.9
20:45 3.7 -1.7 68 1001.3 9.2 N 15.2 0.0 5.9
20:46 3.7 -1.7 68 1001.3 9.8 NW 15.2 0.0 5.9
20:47 3.7 -1.7 68 1001.3 11.4 NW 15.2 0.0 5.9
20:48 3.7 -1.7 68 1001.3 11.4 N 15.2 0.0 5.9
20:49 3.7 -1.7 68 1001.2 10.7 W 15.2 0.0 5.9
20:50 3.7 -1.7 68 1001.3 9.2 NW 13.0 0.0 5.9
20:51 3.7 -1.7 68 1001.5 9.8 W 13.0 0.0 5.9
20:53 3.7 -1.7 68 1001.4 9.8 SW 13.0 0.0 5.9
20:54 3.7 -1.7 68 1001.4 9.8 NW 13.0 0.0 5.9
20:55 3.8 -1.6 68 1001.4 13.0 NW 13.0 0.0 5.9
20:56 3.8 -1.6 68 1001.1 13.0 WNW 13.0 0.0 5.9
20:57 3.8 -1.8 67 1001.4 11.4 W 13.0 0.0 5.9
20:58 3.8 -1.8 67 1001.4 14.5 NW 14.5 0.0 5.9
20:59 3.8 -1.8 67 1001.2 13.6 NW 14.5 0.0 5.9
21:00 3.8 -1.8 67 1001.5 14.5 NW 14.5 0.0 5.9
21:01 3.8 -1.8 67 1001.3 14.5 NW 14.5 0.0 5.9
21:02 3.8 -1.8 67 1001.5 14.5 NW 14.5 0.0 5.9
21:03 3.8 -1.8 67 1001.4 14.5 NW 14.5 0.0 5.9
21:04 3.8 -1.8 67 1001.3 14.5 NW 14.5 0.0 5.9
21:05 3.8 -1.8 67 1001.4 15.9 NW 15.9 0.0 5.9
21:06 4.0 -2.0 65 1001.4 9.8 W 15.9 0.0 5.9
21:07 4.0 -2.0 65 1001.4 13.6 W 15.9 0.0 5.9
21:08 4.0 -2.0 65 1001.4 11.4 W 15.9 0.0 5.9
21:09 4.0 -2.0 65 1001.4 9.2 NW 15.9 0.0 5.9
21:11 4.0 -2.2 64 1001.5 13.0 NW 15.9 0.0 5.9
21:12 4.0 -2.2 64 1001.7 10.7 NW 15.9 0.0 5.9
21:13 4.0 -2.2 64 1001.5 12.1 W 15.9 0.0 5.9
21:14 4.0 -2.2 64 1001.4 15.9 NW 15.9 0.0 5.9
21:15 4.0 -2.2 64 1001.4 14.5 NW 15.9 0.0 5.9
21:16 4.1 -2.1 64 1001.4 10.7 NE 15.9 0.0 5.9
21:18 4.1 -2.3 63 1001.4 15.2 WNW 15.9 0.0 5.9
21:19 4.1 -2.3 63 1001.5 13.0 WNW 15.9 0.0 5.9
21:20 4.1 -2.3 63 1001.2 12.1 N 15.9 0.0 5.9
21:21 4.1 -2.3 63 1001.5 8.3 W 15.9 0.0 5.9
21:22 4.1 -2.3 63 1001.3 12.1 NW 15.9 0.0 5.9
21:23 4.1 -2.3 63 1001.5 12.1 NW 15.9 0.0 5.9
21:24 4.0 -2.6 62 1001.4 10.7 NNE 15.9 0.0 5.9
21:25 4.0 -2.6 62 1001.6 8.3 NW 15.9 0.0 5.9
21:26 4.0 -2.6 62 1001.6 9.8 N 15.2 0.0 5.9
21:27 4.0 -2.6 62 1001.8 9.8 NW 15.2 0.0 5.9
21:28 4.0 -2.6 62 1001.5 13.6 NW 15.2 0.0 5.9
21:29 4.0 -2.6 62 1001.6 12.1 W 13.6 0.0 5.9
21:30 4.0 -2.6 62 1001.5 14.5 N 14.5 0.8 6.0
21:31 4.0 -2.6 62 1001.6 9.8 NW 14.5 0.8 6.0
21:32 4.0 -2.6 62 1001.4 10.7 NW 14.5 0.8 6.0
21:33 4.0 -2.6 62 1001.6 11.4 NW 14.5 0.8 6.0
21:35 4.0 -2.6 62 1001.6 11.4 NW 15.9 0.0 6.0
21:36 4.0 -2.6 62 1001.6 13.6 W 15.9 0.0 6.0
21:37 4.0 -2.6 62 1001.7 10.7 W 15.9 0.0 6.0
21:38 4.1 -2.5 62 1001.7 14.5 NW 15.9 0.0 6.0
21:39 4.1 -2.3 63 1001.6 15.2 NW 15.9 0.0 6.0
21:40 4.1 -2.3 63 1001.6 15.2 NW 15.9 0.0 6.0
21:41 4.1 -2.3 63 1001.6 12.1 NW 15.9 0.0 6.0
21:42 4.1 -2.3 63 1001.9 12.1 WNW 15.9 0.0 6.0
21:43 4.1 -2.3 63 1001.7 14.5 W 15.9 0.0 6.0
21:44 4.1 -2.3 63 1001.6 14.5 W 15.9 0.0 6.0
21:45 4.2 -2.2 63 1001.7 13.0 W 17.4 0.0 6.0
21:46 4.2 -2.2 63 1001.8 13.0 NW 17.4 0.0 6.0
21:47 4.2 -2.2 63 1001.7 10.7 SW 17.4 0.0 6.0
21:48 4.2 -2.0 64 1001.9 13.0 N 17.4 0.0 6.0
21:49 4.2 -2.0 64 1001.7 10.7 NW 17.4 0.0 6.0
21:50 4.2 -2.0 64 1001.7 14.5 W 17.4 0.0 6.0
21:52 4.2 -2.0 64 1001.8 11.4 NW 17.4 0.0 6.0
21:53 4.2 -2.0 64 1001.7 12.1 S 17.4 0.0 6.0
21:54 4.2 -2.0 64 1001.6 12.1 S 17.4 0.0 6.0
21:55 4.2 -1.8 65 1001.6 12.1 NW 14.5 0.0 6.0
21:56 4.2 -1.8 65 1001.3 15.2 W 15.2 0.0 6.0
21:57 4.2 -1.8 65 1001.6 15.2 N 15.2 0.0 6.0
21:58 4.2 -1.8 65 1001.6 15.2 N 15.2 0.0 6.0
21:59 4.2 -1.8 65 1001.6 9.8 NW 15.2 0.8 6.0
22:00 4.2 -1.8 65 1001.7 9.2 W 15.2 0.8 6.0
22:01 4.2 -1.8 65 1001.7 9.2 W 15.2 0.8 6.0
22:02 4.2 -1.8 65 1001.5 9.2 W 15.2 0.8 6.0
22:03 4.2 -1.8 65 1001.6 9.2 W 15.2 0.8 6.0
22:04 4.2 -1.8 65 1001.9 9.2 W 15.2 0.0 6.0
22:05 4.2 -1.8 65 1001.6 11.4 W 15.2 0.0 6.0
22:06 4.1 -1.9 65 1001.4 16.8 NW 16.8 0.0 6.0
22:07 4.1 -1.9 65 1001.7 16.8 NW 16.8 0.0 6.0
22:08 4.1 -1.9 65 1001.9 13.0 W 16.8 0.0 6.0
22:09 4.1 -1.9 65 1001.9 9.8 NW 16.8 0.0 6.0
22:11 4.1 -1.9 65 1002.0 15.2 W 16.8 0.0 6.0
22:12 4.1 -1.9 65 1001.9 15.9 NE 16.8 0.0 6.0
22:13 4.1 -1.9 65 1001.9 13.6 NW 16.8 0.0 6.0
22:14 4.1 -1.9 65 1001.8 13.0 NW 16.8 0.0 6.0
22:15 4.1 -1.9 65 1001.9 11.4 NW 16.8 0.0 6.0
22:16 4.1 -1.9 65 1001.9 11.4 NW 16.8 0.0 6.0
22:17 4.1 -1.9 65 1002.1 12.1 NW 16.8 0.0 6.0
22:18 4.2 -1.8 65 1002.4 14.5 SW 15.9 0.0 6.0
22:19 4.2 -1.8 65 1002.3 16.8 N 16.8 0.0 6.0
22:20 4.1 -1.7 66 1002.4 14.5 W 16.8 0.0 6.0
22:21 4.1 -1.7 66 1002.5 12.1 NE 16.8 0.0 6.0
22:22 4.0 -1.8 66 1002.5 11.4 SW 16.8 0.0 6.0
22:23 3.9 -1.9 66 1002.4 11.4 NW 16.8 0.0 6.0
22:24 3.8 -2.0 66 1002.6 7.6 NW 16.8 0.0 6.0
22:25 3.6 -1.9 67 1002.5 11.4 W 16.8 0.0 6.0
22:26 3.5 -2.0 67 1002.6 8.3 N 16.8 0.0 6.0
22:27 3.5 -2.0 67 1002.5 8.3 N 16.8 0.0 6.0
22:29 3.2 -2.1 68 1002.6 11.4 NW 14.5 0.0 6.0
22:30 3.1 -2.2 68 1002.5 5.4 SW 12.1 0.0 6.0
22:31 3.1 -2.2 68 1002.5 6.9 E 11.4 0.0 6.0
22:32 3.0 -2.1 69 1002.6 6.9 N 11.4 0.0 6.0
22:33 3.0 -2.1 69 1002.3 6.9 N 11.4 0.0 6.0
22:34 2.9 -2.0 70 1002.3 5.4 SW 11.4 0.0 6.0
22:35 2.9 -2.0 70 1002.3 9.2 W 11.4 0.0 6.0
22:36 2.8 -2.1 70 1002.6 4.5 SW 11.4 0.0 6.0
22:37 2.8 -2.1 70 1002.4 8.3 NW 11.4 0.0 6.0
22:38 2.8 -2.1 70 1002.3 7.6 NE 11.4 0.0 6.0
22:39 2.8 -1.9 71 1002.3 4.5 NW 11.4 0.0 6.0
22:40 2.8 -1.9 71 1002.5 4.5 SE 9.2 0.0 6.0
22:41 2.8 -1.9 71 1002.5 9.2 N 9.2 0.0 6.0
22:42 2.8 -1.9 71 1002.5 9.2 N 9.2 0.0 6.0
22:43 2.7 -1.8 72 1002.7 4.5 NE 9.2 0.0 6.0
22:44 2.7 -1.8 72 1002.5 8.3 NW 9.2 0.0 6.0
22:46 2.7 -1.8 72 1002.7 4.5 NW 9.2 0.8 6.1
22:47 2.7 -1.8 72 1002.5 9.8 NNE 9.8 0.8 6.2
22:48 2.7 -1.8 72 1002.6 6.9 NW 9.8 1.5 6.2
22:49 2.7 -1.8 72 1002.6 6.9 NW 9.8 1.5 6.2
22:50 2.7 -1.6 73 1002.7 8.3 W 9.8 1.5 6.2
22:51 2.7 -1.6 73 1002.7 9.2 NW 9.8 1.5 6.2
22:52 2.8 -1.6 73 1002.6 7.6 W 9.8 2.3 6.3
22:53 2.8 -1.6 73 1002.7 8.3 NW 9.8 1.5 6.3
22:54 2.8 -1.6 73 1002.5 8.3 NW 9.8 1.5 6.3
22:55 2.8 -1.4 74 1002.8 9.2 NW 9.8 1.5 6.3
22:56 2.8 -1.4 74 1002.7 6.9 NW 9.8 0.8 6.3
22:57 2.8 -1.4 74 1002.7 7.6 NW 9.8 0.0 6.3
22:58 2.8 -1.4 74 1002.8 5.4 W 9.2 0.0 6.3
22:59 2.8 -1.4 74 1002.7 5.4 W 9.2 0.0 6.3
23:00 2.8 -1.4 74 1002.6 7.6 SW 9.2 0.8 6.4
23:01 2.8 -1.4 74 1002.6 7.6 SW 9.2 0.8 6.4
23:02 2.8 -1.4 74 1002.9 7.6 SW 9.2 0.8 6.4
23:04 2.8 -1.4 74 1002.8 7.6 SW 9.2 0.8 6.4
23:05 2.8 -1.4 74 1002.9 7.6 SW 7.6 0.0 6.4
23:06 2.8 -1.4 74 1002.9 7.6 SW 7.6 0.0 6.4
23:07 2.8 -1.2 75 1002.8 9.8 N 9.8 0.0 6.4
23:08 2.8 -1.2 75 1002.9 9.8 N 9.8 0.0 6.4
23:09 2.8 -1.2 75 1002.9 9.8 N 9.8 0.0 6.4
23:10 2.8 -1.2 75 1003.0 10.7 NW 13.0 0.8 6.4
23:11 2.8 -1.2 75 1003.1 8.3 NE 13.0 0.8 6.4
23:12 2.8 -1.0 76 1003.1 5.4 N 13.0 0.8 6.4
23:13 2.8 -1.0 76 1003.0 9.8 NE 13.0 0.8 6.4
23:14 2.8 -1.0 76 1003.0 11.4 W 13.0 0.8 6.4
23:15 2.8 -1.0 76 1003.0 9.2 SW 13.0 0.0 6.4
23:16 2.8 -1.0 76 1003.0 8.3 NE 13.0 0.0 6.4
23:17 2.8 -1.0 76 1002.9 7.6 NNW 13.0 0.0 6.4
23:18 2.8 -1.0 76 1003.2 9.8 NW 13.0 0.0 6.4
23:19 2.8 -1.0 76 1003.0 9.2 ESE 13.0 0.0 6.4
23:20 2.8 -1.0 76 1003.0 9.8 NW 11.4 0.0 6.4
23:21 2.8 -1.0 76 1003.1 9.8 N 11.4 0.0 6.4
23:22 2.8 -1.0 76 1003.0 9.8 W 11.4 0.0 6.4
23:23 2.8 -1.0 76 1003.3 9.8 N 11.4 0.0 6.4
23:24 2.8 -1.2 75 1003.2 9.8 N 11.4 0.0 6.4
23:25 2.8 -1.2 75 1003.1 11.4 N 11.4 0.0 6.4
23:26 2.8 -1.2 75 1003.1 11.4 W 11.4 0.0 6.4
23:27 2.8 -1.2 75 1003.2 9.2 N 11.4 0.0 6.4
23:28 2.8 -1.2 75 1003.2 15.9 NE 15.9 0.0 6.4
23:29 2.8 -1.2 75 1003.3 10.7 NW 15.9 0.0 6.4
23:30 2.8 -1.2 75 1003.2 11.4 S 15.9 0.0 6.4
23:32 2.8 -1.2 75 1003.3 8.3 NW 15.9 0.0 6.4
23:33 2.8 -1.2 75 1003.2 8.3 NW 15.9 0.0 6.4
23:34 2.8 -1.2 75 1003.4 12.1 NW 15.9 0.0 6.4
23:35 2.8 -1.2 75 1003.5 10.7 N 15.9 0.0 6.4
23:36 2.7 -1.3 75 1003.5 12.1 NE 15.9 0.0 6.4
23:37 2.7 -1.5 74 1003.5 12.1 NW 15.9 0.0 6.4
23:38 2.7 -1.5 74 1003.4 8.3 NW 15.9 0.0 6.4
23:39 2.7 -1.5 74 1003.3 9.8 NW 12.1 0.0 6.4
23:40 2.7 -1.5 74 1003.4 7.6 N 12.1 0.0 6.4
23:41 2.6 -1.6 74 1003.5 9.2 W 12.1 0.0 6.4
23:42 2.6 -1.6 74 1003.6 9.2 NW 12.1 0.0 6.4
23:43 2.6 -1.6 74 1003.5 9.8 NE 12.1 0.0 6.4
23:44 2.6 -1.6 74 1003.4 9.8 NE 12.1 0.0 6.4
23:45 2.6 -1.6 74 1003.6 15.2 N 15.2 0.0 6.4
23:46 2.6 -1.7 73 1003.6 11.4 N 15.2 0.0 6.4
23:47 2.5 -1.8 73 1003.7 8.3 NE 15.2 0.0 6.4
23:49 2.5 -1.8 73 1003.5 9.2 SE 15.2 0.0 6.4
23:50 2.5 -1.8 73 1003.6 9.2 N 15.2 0.0 6.4
23:51 2.5 -1.8 73 1003.8 8.3 W 15.2 0.8 6.5
23:52 2.5 -1.8 73 1003.9 7.6 N 15.2 0.8 6.5
23:53 2.5 -1.8 73 1003.9 6.9 N 15.2 0.8 6.5
23:54 2.5 -1.8 73 1004.1 5.4 N 15.2 0.8 6.5
23:56 2.5 -1.8 73 1004.1 9.8 N 9.8 0.0 6.5
23:57 2.5 -1.8 73 1004.0 5.4 W 9.8 0.0 6.5
23:58 2.5 -1.8 73 1004.2 6.9 NE 9.8 0.0 6.5
23:59 2.4 -1.9 73 1004.0 10.7 N 10.7 0.0 6.5

 

 

UK - WEATHER STATION TOPSITES - UK World Weather Websites

Copyright © Carnkie Weather 2009 - 2021.